I-5 : South of SR-46 Atmospheric Data: 03/22/2019 Summary  Detailed Graphs  Station List

  Temperature     Wind Precipitation Visibility
Timestamp Wet
Bulb
Dew-
point
24-hr
Max
24-hr
Min
Relative
Humidity
Atmospheric
Pressure
Avg
Speed
Avg
Dir
Spot
Speed
Spot
Dir
Max
Speed
Max
Dir
  Rate Situation Start End 1 hr 3 hr 6 hr 12 hr 24 hr   Situation
Date Time °F °F °F °F % in Hg mph ° mph ° mph ° Y/N in/hr text Date Time Date Time in in in in in mi text
03/22/2019 12:01 AM 40.82 2.84 67.46 44.96 14.0 x 5.14 NW 4.92 NW 6.49 NW x x Other 02/14/2019 07:19 AM   x x x x x 31.02 Unknown
03/22/2019 12:02 AM 40.82 2.84 67.46 44.96 14.0 x 5.14 NW 5.37 NW 6.49 NW x x Other 02/14/2019 07:19 AM   x x x x x 31.02 Unknown
03/22/2019 12:03 AM 40.82 2.84 67.46 44.96 14.0 x 5.14 NW 5.59 NW 6.49 NW x x Other 02/14/2019 07:19 AM   x x x x x 31.02 Unknown
03/22/2019 12:04 AM 40.82 2.84 67.46 44.96 14.0 x 4.92 NW 5.59 NW 6.49 NW x x Other 02/14/2019 07:19 AM   x x x x x 31.02 Unknown
03/22/2019 12:05 AM 40.82 2.84 67.46 44.96 14.0 x 4.70 NW 4.70 NW 6.49 NW x x Other 02/14/2019 07:19 AM   x x x x x 31.02 Unknown
03/22/2019 12:06 AM 40.82 2.84 67.46 44.96 14.0 x 4.92 NW 4.92 NW 6.49 NW x x Other 02/14/2019 07:19 AM   x x x x x 31.02 Unknown
03/22/2019 12:07 AM 41.00 2.84 67.46 44.96 14.0 x 5.14 NW 5.82 NW 6.49 NW x x Other 02/14/2019 07:19 AM   x x x x x 31.02 Unknown
03/22/2019 12:08 AM 41.00 2.84 67.46 44.96 14.0 x 5.37 NW 5.14 NW 6.49 NW x x Other 02/14/2019 07:19 AM   x x x x x 31.02 Unknown
03/22/2019 12:09 AM 41.00 2.84 67.46 44.96 14.0 x 5.14 NW 5.59 W 6.49 NW x x Other 02/14/2019 07:19 AM   x x x x x 31.02 Unknown
03/22/2019 12:10 AM 41.00 2.84 67.46 44.96 14.0 x 4.70 NW 4.25 W 6.49 NW x x Other 02/14/2019 07:19 AM   x x x x x 31.02 Unknown
03/22/2019 12:11 AM 40.82 2.66 67.46 44.96 14.0 x 4.92 NW 3.80 NW 6.26 NW x x Other 02/14/2019 07:19 AM   x x x x x 31.02 Unknown
03/22/2019 12:12 AM 40.82 2.66 67.46 44.96 14.0 x 4.70 NW 5.14 NW 6.26 NW x x Other 02/14/2019 07:19 AM   x x x x x 31.02 Unknown
03/22/2019 12:13 AM 40.82 2.66 67.46 44.96 14.0 x 4.92 NW 5.37 W 6.26 NW x x Other 02/14/2019 07:19 AM   x x x x x 31.02 Unknown
03/22/2019 12:14 AM 40.82 2.66 67.46 44.96 14.0 x 5.37 NW 4.92 NW 6.26 NW x x Other 02/14/2019 07:19 AM   x x x x x 31.02 Unknown
03/22/2019 12:15 AM 40.82 2.66 67.46 44.96 14.0 x 4.92 NW 4.03 NW 6.26 NW x x Other 02/14/2019 07:19 AM   x x x x x 31.02 Unknown
03/22/2019 12:16 AM 40.82 2.66 67.46 44.96 14.0 x 4.70 W 5.14 W 6.26 NW x x Other 02/14/2019 07:19 AM   x x x x x 31.02 Unknown
03/22/2019 12:17 AM 40.82 2.66 67.46 44.96 14.0 x 4.70 W 4.92 W 6.26 NW x x Other 02/14/2019 07:19 AM   x x x x x 31.02 Unknown
03/22/2019 12:18 AM 40.82 2.66 67.46 44.96 14.0 x 4.92 W 5.14 W 6.93 W x x Other 02/14/2019 07:19 AM   x x x x x 31.02 Unknown
03/22/2019 12:20 AM 40.64 2.66 67.46 44.96 14.0 x 5.14 W 5.37 W 6.93 W x x Other 02/14/2019 07:19 AM   x x x x x 31.02 Unknown
03/22/2019 12:21 AM 40.64 2.66 67.46 44.96 14.0 x 4.92 W 3.80 W 6.93 W x x Other 02/14/2019 07:19 AM   x x x x x 31.02 Unknown
03/22/2019 12:22 AM 40.64 2.66 67.46 44.96 14.0 x 4.25 W 4.47 W 6.93 W x x Other 02/14/2019 07:19 AM   x x x x x 31.02 Unknown
03/22/2019 12:23 AM 40.64 2.66 67.46 44.96 14.0 x 3.58 W 2.68 W 6.93 W x x Other 02/14/2019 07:19 AM   x x x x x 31.02 Unknown
03/22/2019 12:24 AM 40.64 2.48 67.46 44.96 14.0 x 2.68 W 2.24 W 6.93 W x x Other 02/14/2019 07:19 AM   x x x x x 31.02 Unknown
03/22/2019 12:25 AM 40.64 2.48 67.46 44.96 14.0 x 2.01 W 2.01 SW 6.93 W x x Other 02/14/2019 07:19 AM   x x x x x 31.02 Unknown
03/22/2019 12:26 AM 40.64 2.48 67.46 44.96 14.0 x 2.01 W 2.46 SW 6.93 W x x Other 02/14/2019 07:19 AM   x x x x x 31.02 Unknown
03/22/2019 12:27 AM 40.64 2.48 67.46 44.96 14.0 x 2.24 SW 2.24 SW 6.93 W x x Other 02/14/2019 07:19 AM   x x x x x 31.02 Unknown
03/22/2019 12:28 AM 40.64 2.48 67.46 44.96 14.0 x 2.68 SW 2.91 SW 6.26 W x x Other 02/14/2019 07:19 AM   x x x x x 31.02 Unknown
03/22/2019 12:29 AM 40.64 2.66 67.46 44.96 14.0 x 2.91 SW 3.13 S 6.26 W x x Other 02/14/2019 07:19 AM   x x x x x 31.02 Unknown
03/22/2019 12:30 AM 40.64 2.66 67.46 44.96 14.0 x 2.91 x 3.80 SW 5.37 W x x Other 02/14/2019 07:19 AM   x x x x x 31.02 Unknown
03/22/2019 12:31 AM 40.64 2.66 67.46 44.96 14.0 x 3.13 SW 3.13 SW 5.37 W x x Other 02/14/2019 07:19 AM   x x x x x 31.02 Unknown
03/22/2019 12:32 AM 40.64 2.66 67.46 44.96 14.0 x 3.13 SW 3.58 W 4.47 SW x x Other 02/14/2019 07:19 AM   x x x x x 31.02 Unknown
03/22/2019 12:33 AM 40.64 2.66 67.46 44.96 14.0 x 3.36 SW 2.68 W 4.47 W x x Other 02/14/2019 07:19 AM   x x x x x 31.02 Unknown
03/22/2019 12:34 AM 40.64 2.48 67.46 44.96 14.0 x 3.13 W 2.46 W 4.47 W x x Other 02/14/2019 07:19 AM   x x x x x 31.02 Unknown
03/22/2019 12:35 AM 40.64 2.48 67.46 44.96 14.0 x 2.68 W 2.24 W 4.47 W x x Other 02/14/2019 07:19 AM   x x x x x 31.02 Unknown
03/22/2019 12:36 AM 40.64 2.48 67.46 44.96 14.0 x 2.91 W 1.57 W 4.47 W x x Other 02/14/2019 07:19 AM   x x x x x 31.02 Unknown
03/22/2019 12:37 AM 40.64 2.66 67.46 44.96 14.0 x 2.68 W 2.46 NW 4.47 W x x Other 02/14/2019 07:19 AM   x x x x x 31.02 Unknown
03/22/2019 12:38 AM 40.64 2.66 67.46 44.96 14.0 x 2.46 W 1.34 SW 4.47 W x x Other 02/14/2019 07:19 AM   x x x x x 31.02 Unknown
03/22/2019 12:39 AM 40.64 2.66 67.46 44.96 14.0 x 2.01 W 1.57 W 4.47 W x x Other 02/14/2019 07:19 AM   x x x x x 31.02 Unknown
03/22/2019 12:40 AM 40.64 2.66 67.46 44.96 14.0 x 1.57 W 1.34 W 4.47 W x x Other 02/14/2019 07:19 AM   x x x x x 31.02 Unknown
03/22/2019 12:41 AM 40.82 2.84 67.46 44.96 14.0 x 1.57 W 1.79 W 4.47 W x x Other 02/14/2019 07:19 AM   x x x x x 31.02 Unknown
03/22/2019 12:42 AM 40.82 2.84 67.46 44.96 14.0 x 1.34 W 1.57 W 3.80 W x x Other 02/14/2019 07:19 AM   x x x x x 31.02 Unknown
03/22/2019 12:43 AM 40.82 2.84 67.46 44.96 14.0 x 1.12 W 1.12 W 3.80 W x x Other 02/14/2019 07:19 AM   x x x x x 31.02 Unknown
03/22/2019 12:44 AM 40.82 2.84 67.46 44.96 14.0 x 0.89 W 0.00 NW 3.80 W x x Other 02/14/2019 07:19 AM   x x x x x 31.02 Unknown
03/22/2019 12:45 AM 40.82 2.84 67.46 44.96 14.0 x 1.12 S 1.34 SW 3.80 W x x Other 02/14/2019 07:19 AM   x x x x x 31.02 Unknown
03/22/2019 12:46 AM 40.82 2.66 67.46 44.96 14.0 x 0.89 SW 0.22 W 3.36 W x x Other 02/14/2019 07:19 AM   x x x x x 31.02 Unknown
03/22/2019 12:47 AM 40.64 2.66 x 44.96 14.0 x 0.67 S 1.34 S 3.13 S x x Other 02/14/2019 07:19 AM   x x x x x 31.02 Unknown
03/22/2019 12:48 AM 40.64 2.48 67.46 44.96 14.0 x 1.12 S 0.67 SW 3.13 S x x Other 02/14/2019 07:19 AM   x x x x x 31.02 Unknown
03/22/2019 12:49 AM 40.46 2.48 67.46 44.96 14.0 x 0.89 SW 1.79 S 3.13 S x x Other 02/14/2019 07:19 AM   x x x x x 31.02 Unknown
03/22/2019 12:50 AM 40.28 2.30 67.46 44.96 14.0 x 0.89 SW 0.89 S 3.13 S x x Other 02/14/2019 07:19 AM   x x x x x 31.02 Unknown
03/22/2019 12:51 AM 40.28 2.12 67.46 44.96 14.0 x 1.34 W 1.57 W 3.13 S x x Other 02/14/2019 07:19 AM   x x x x x 31.02 Unknown
03/22/2019 12:52 AM 40.28 2.12 67.46 44.96 14.0 x 1.57 SW 1.34 SW 3.36 SW x x Other 02/14/2019 07:19 AM   x x x x x 31.02 Unknown
03/22/2019 12:53 AM 40.28 2.12 67.46 44.96 14.0 x 1.34 SW 1.79 W 3.36 SW x x Other 02/14/2019 07:19 AM   x x x x x 31.02 Unknown
03/22/2019 12:54 AM 40.28 2.30 67.46 44.96 14.0 x 1.12 NW 0.00 NW 3.36 SW x x Other 02/14/2019 07:19 AM   x x x x x 31.02 Unknown
03/22/2019 12:55 AM 40.46 2.48 67.46 44.96 14.0 x 0.89 W 2.01 W 3.36 SW x x Other 02/14/2019 07:19 AM   x x x x x 31.02 Unknown
03/22/2019 12:57 AM 40.46 2.48 67.46 44.96 14.0 x 1.57 W 1.57 W 3.36 SW x x Other 02/14/2019 07:19 AM   x x x x x 31.02 Unknown
03/22/2019 12:58 AM 40.64 2.48 67.46 44.96 14.0 x 1.79 NW 1.79 NW 3.36 SW x x Other 02/14/2019 07:19 AM   x x x x x 31.02 Unknown
03/22/2019 12:59 AM 40.64 2.48 67.46 44.96 14.0 x 2.01 NW 3.58 NW 3.36 SW x x Other 02/14/2019 07:19 AM   x x x x x 31.02 Unknown
03/22/2019 01:00 AM 40.64 2.48 67.46 44.96 14.0 x 2.46 NW 3.36 NW 4.25 NW x x Other 02/14/2019 07:19 AM   x x x x x 31.02 Unknown
03/22/2019 01:01 AM 40.64 2.66 67.46 44.96 14.0 x 3.13 NW 2.46 W 5.82 N x x Other 02/14/2019 07:19 AM   x x x x x 31.02 Unknown
03/22/2019 01:02 AM 40.64 2.66 67.46 44.96 14.0 x 3.13 NW 3.36 NW 5.82 N x x Other 02/14/2019 07:19 AM   x x x x x 31.02 Unknown
03/22/2019 01:03 AM 40.82 2.84 67.46 44.96 14.0 x 2.46 NW 2.46 NW 5.82 N x x Other 02/14/2019 07:19 AM   x x x x x 31.02 Unknown
03/22/2019 01:05 AM 41.00 2.84 67.46 44.96 14.0 x 3.80 NW 4.25 NW 5.82 N x x Other 02/14/2019 07:19 AM   x x x x x 31.02 Unknown
03/22/2019 01:06 AM 41.00 3.02 67.46 44.96 14.0 x 3.80 NW 2.46 NW 5.82 N x x Other 02/14/2019 07:19 AM   x x x x x 31.02 Unknown
03/22/2019 01:07 AM 41.18 3.20 67.46 44.96 14.0 x 2.68 NW 3.80 NW 5.82 N x x Other 02/14/2019 07:19 AM   x x x x x 31.02 Unknown
03/22/2019 01:08 AM 41.18 3.20 67.46 44.96 14.0 x 2.46 NW 2.01 NW 5.82 N x x Other 02/14/2019 07:19 AM   x x x x x 31.02 Unknown
03/22/2019 01:09 AM 41.18 3.20 67.46 44.96 14.0 x 2.46 NW 1.12 W 5.82 N x x Other 02/14/2019 07:19 AM   x x x x x 31.02 Unknown
03/22/2019 01:10 AM 41.00 3.02 67.46 44.96 14.0 x 2.01 NW 0.00 SW 5.82 N x x Other 02/14/2019 07:19 AM   x x x x x 31.02 Unknown
03/22/2019 01:11 AM 40.82 2.66 67.46 44.96 14.0 x 2.01 S 1.12 SW 5.82 N x x Other 02/14/2019 07:19 AM   x x x x x 31.02 Unknown
03/22/2019 01:12 AM 40.64 2.48 67.46 44.96 14.0 x 1.34 SW 0.89 W 5.82 N x x Other 02/14/2019 07:19 AM   x x x x x 31.02 Unknown
03/22/2019 01:13 AM 40.46 1.76 67.46 44.96 14.0 x 0.89 W 0.45 S 5.82 N x x Other 02/14/2019 07:19 AM   x x x x x 31.02 Unknown
03/22/2019 01:14 AM 40.28 1.76 67.46 44.96 14.0 x 0.89 W 1.79 NW 5.82 N x x Other 02/14/2019 07:19 AM   x x x x x 31.02 Unknown
03/22/2019 01:15 AM 40.28 1.76 67.46 44.96 14.0 x 1.34 SW 1.57 W 4.47 NW x x Other 02/14/2019 07:19 AM   x x x x x 31.02 Unknown
03/22/2019 01:16 AM 40.10 1.76 67.46 44.96 14.0 x 1.79 W 2.68 S 4.47 NW x x Other 02/14/2019 07:19 AM   x x x x x 31.02 Unknown
03/22/2019 01:17 AM 40.10 1.40 67.46 44.96 14.0 x 1.79 W 1.57 NW 4.03 W x x Other 02/14/2019 07:19 AM   x x x x x 31.02 Unknown
03/22/2019 01:18 AM 40.10 1.94 67.46 44.96 14.0 x 1.34 W 0.00 SW 4.03 W x x Other 02/14/2019 07:19 AM   x x x x x 31.02 Unknown
03/22/2019 01:19 AM 40.10 1.94 67.46 44.96 14.0 x 1.34 W 1.12 W 4.03 W x x Other 02/14/2019 07:19 AM   x x x x x 31.02 Unknown
03/22/2019 01:20 AM 39.92 1.76 67.46 44.96 14.0 x 1.57 W 2.24 SW 3.36 SW x x Other 02/14/2019 07:19 AM   x x x x x 31.02 Unknown
03/22/2019 01:21 AM 39.92 1.76 67.46 44.96 14.0 x 1.79 W 0.22 N 3.36 W x x Other 02/14/2019 07:19 AM   x x x x x 31.02 Unknown
03/22/2019 01:22 AM 39.92 1.76 67.46 44.96 14.0 x 1.12 W 2.01 SW 3.36 W x x Other 02/14/2019 07:19 AM   x x x x x 31.02 Unknown
03/22/2019 01:23 AM 40.10 1.94 67.46 44.96 14.0 x 1.34 SW 2.24 SW 3.36 W x x Other 02/14/2019 07:19 AM   x x x x x 31.02 Unknown
03/22/2019 01:24 AM 40.28 2.12 67.46 44.96 14.0 x 2.24 SW 1.79 SW 3.58 SW x x Other 02/14/2019 07:19 AM   x x x x x 31.02 Unknown
03/22/2019 01:25 AM 40.28 2.30 67.46 44.96 14.0 x 2.46 SW 1.79 S 3.58 SW x x Other 02/14/2019 07:19 AM   x x x x x 31.02 Unknown
03/22/2019 01:26 AM 40.46 2.48 67.46 44.96 14.0 x 2.01 SW 3.36 SW 3.58 SW x x Other 02/14/2019 07:19 AM   x x x x x 31.02 Unknown
03/22/2019 01:27 AM 40.46 2.48 67.46 44.96 14.0 x 2.24 W 3.13 W 3.58 SW x x Other     x x x x x 31.02 Unknown
03/22/2019 01:28 AM 40.64 2.48 67.46 44.96 14.0 x 2.91 W 4.70 W 4.70 W x x Other 02/14/2019 07:19 AM   x x x x x 31.02 Unknown
03/22/2019 01:29 AM 40.64 2.48 67.46 44.96 14.0 x 3.36 W 4.25 W 4.70 W x x Other 02/14/2019 07:19 AM   x x x x x 31.02 Unknown
03/22/2019 01:30 AM 40.64 2.48 67.46 44.96 14.0 x 4.03 W 3.13 W 4.92 SW x x Other 02/14/2019 07:19 AM   x x x x x 31.02 Unknown
03/22/2019 01:31 AM 40.64 2.48 67.46 44.96 14.0 x 4.03 W 2.24 W 4.92 SW x x Other 02/14/2019 07:19 AM   x x x x x 31.02 Unknown
03/22/2019 01:32 AM 40.64 2.48 67.46 44.96 14.0 x 4.03 W 4.25 W 4.92 SW x x Other 02/14/2019 07:19 AM   x x x x x 31.02 Unknown
03/22/2019 01:33 AM 40.64 2.48 67.46 44.96 14.0 x 4.25 W 5.37 W 4.92 SW x x Other 02/14/2019 07:19 AM   x x x x x 31.02 Unknown
03/22/2019 01:34 AM 40.64 2.48 67.46 44.96 14.0 x 4.25 W 3.58 W 5.37 W x x Other 02/14/2019 07:19 AM   x x x x x 31.02 Unknown
03/22/2019 01:35 AM 40.64 2.48 67.46 44.96 14.0 x 4.25 W 4.25 W 5.37 W x x Other 02/14/2019 07:19 AM   x x x x x 31.02 Unknown
03/22/2019 01:36 AM 40.64 2.48 67.46 44.96 14.0 x 4.70 W 4.70 W 5.37 W x x Other 02/14/2019 07:19 AM   x x x x x 31.02 Unknown
03/22/2019 01:37 AM 40.64 2.48 67.46 44.96 14.0 x 4.25 W 2.46 W 5.37 W x x Other 02/14/2019 07:19 AM   x x x x x 31.02 Unknown
03/22/2019 01:38 AM 40.64 2.48 67.46 44.96 14.0 x 3.58 W 2.01 NW 5.37 W x x Other 02/14/2019 07:19 AM   x x x x x 31.02 Unknown
03/22/2019 01:39 AM 40.64 2.48 67.46 44.96 14.0 x 2.91 W 3.36 W 5.37 W x x Other 02/14/2019 07:19 AM   x x x x x 31.02 Unknown
03/22/2019 01:40 AM 40.64 2.48 67.46 44.96 14.0 x 2.68 W 2.91 SW 5.37 W x x Other 02/14/2019 07:19 AM   x x x x x 31.02 Unknown
03/22/2019 01:41 AM 40.64 2.48 67.46 44.96 14.0 x 2.46 SW 2.01 W 5.37 W x x Other 02/14/2019 07:19 AM   x x x x x 31.02 Unknown
03/22/2019 01:42 AM 40.64 2.48 67.46 44.96 14.0 x 2.24 SW 2.46 W 5.37 W x x Other 02/14/2019 07:19 AM   x x x x x 31.02 Unknown
03/22/2019 01:43 AM 40.64 2.48 67.46 44.96 14.0 x 2.24 W 1.79 W 5.37 W x x Other 02/14/2019 07:19 AM   x x x x x 31.02 Unknown
03/22/2019 01:44 AM 40.64 2.48 67.46 44.96 14.0 x 2.46 W 2.91 W 5.37 W x x Other 02/14/2019 07:19 AM   x x x x x 31.02 Unknown
03/22/2019 01:45 AM 40.64 2.48 67.46 44.96 14.0 x 2.46 W 2.01 SW 5.37 W x x Other 02/14/2019 07:19 AM   x x x x x 31.02 Unknown
03/22/2019 01:46 AM 40.64 2.48 67.46 44.96 14.0 x 2.01 W 1.57 SW 4.92 W x x Other 02/14/2019 07:19 AM   x x x x x 31.02 Unknown
03/22/2019 01:47 AM 40.64 2.66 67.46 44.96 14.0 x 1.34 W 2.46 SW 4.03 W x x Other 02/14/2019 07:19 AM   x x x x x 31.02 Unknown
03/22/2019 01:48 AM 40.64 2.66 67.46 44.96 14.0 x 1.34 W 1.34 W 4.03 W x x Other 02/14/2019 07:19 AM   x x x x x 31.02 Unknown
03/22/2019 01:49 AM 40.64 2.66 67.46 44.96 14.0 x 1.57 W 2.01 SW 3.80 SW x x Other 02/14/2019 07:19 AM   x x x x x 31.02 Unknown
03/22/2019 01:50 AM 40.64 2.48 67.46 44.96 14.0 x 1.34 W 1.57 W 3.80 SW x x Other 02/14/2019 07:19 AM   x x x x x 31.02 Unknown
03/22/2019 01:51 AM 40.64 2.48 67.46 44.96 14.0 x 1.12 W 0.22 W 3.80 SW x x Other 02/14/2019 07:19 AM   x x x x x 31.02 Unknown
03/22/2019 01:52 AM 40.46 1.76 67.46 44.96 14.0 x 0.89 SE 0.22 SE 3.80 SW x x Other 02/14/2019 07:19 AM   x x x x x 31.02 Unknown
03/22/2019 01:53 AM 40.10 1.58 67.46 44.96 14.0 x 1.12 SE 2.46 SE 3.80 W x x Other 02/14/2019 07:19 AM   x x x x x 31.02 Unknown
03/22/2019 01:54 AM 39.74 1.04 67.46 44.96 14.0 x 2.01 SE 2.24 SE 3.80 W x x Other 02/14/2019 07:19 AM   x x x x x 31.02 Unknown
03/22/2019 01:55 AM 39.56 0.14 67.46 44.96 13.0 x 2.24 SE 2.01 SE 2.91 W x x Other 02/14/2019 07:19 AM   x x x x x 31.02 Unknown
03/22/2019 01:56 AM 39.20 -0.22 67.46 44.96 13.0 x 2.01 SE 1.57 SE 2.91 W x x Other 02/14/2019 07:19 AM   x x x x x 31.02 Unknown
03/22/2019 01:57 AM 38.84 -0.58 67.46 44.96 13.0 x 1.57 SE 0.22 SE 2.91 W x x Other 02/14/2019 07:19 AM   x x x x x 31.02 Unknown
03/22/2019 01:58 AM 38.66 -0.76 67.46 44.96 13.0 x 0.89 SE 2.46 SE 2.68 SE x x Other 02/14/2019 07:19 AM   x x x x x 31.02 Unknown
03/22/2019 01:59 AM 38.30 -0.94 67.46 44.96 13.0 x 1.12 SE 1.34 SE 2.68 SE x x Other 02/14/2019 07:19 AM   x x x x x 31.02 Unknown
03/22/2019 02:01 AM 37.94 -1.48 67.46 44.96 13.0 x 0.67 SE 1.12 SE 2.68 SE x x Other 02/14/2019 07:19 AM   x x x x x 31.02 Unknown
03/22/2019 02:03 AM 37.76 -0.94 67.46 44.96 14.0 x 0.22 SE 0.00 SE 2.68 SE x x Other 02/14/2019 07:19 AM   x x x x x 31.02 Unknown
03/22/2019 02:04 AM 37.58 -1.12 67.46 44.96 14.0 x 0.00 SE 0.00 SW 2.46 SE x x Other 02/14/2019 07:19 AM   x x x x x 31.02 Unknown
03/22/2019 02:05 AM 37.40 -0.76 67.46 44.78 14.0 x 0.00 SE 0.45 NW 2.46 SE x x Other 02/14/2019 07:19 AM   x x x x x 31.02 Unknown
03/22/2019 02:06 AM 37.40 -0.94 67.46 44.78 14.0 x 0.00 W 0.67 W 2.46 SE x x Other 02/14/2019 07:19 AM   x x x x x 31.02 Unknown
03/22/2019 02:07 AM 37.58 -0.58 67.46 44.78 14.0 x 0.45 NW 0.00 S 2.46 SE x x Other 02/14/2019 07:19 AM   x x x x x 31.02 Unknown
03/22/2019 02:08 AM 37.58 -0.58 67.46 44.78 14.0 x 1.12 S 1.57 NW 3.58 S x x Other 02/14/2019 07:19 AM   x x x x x 31.02 Unknown
03/22/2019 02:09 AM 37.58 -0.58 67.46 44.78 14.0 x 1.12 SE 1.57 S 3.58 S x x Other 02/14/2019 07:19 AM   x x x x x 31.02 Unknown
03/22/2019 02:10 AM 37.58 -0.04 67.46 44.78 14.0 x 0.89 SE 1.34 S 3.58 S x x Other 02/14/2019 07:19 AM   x x x x x 31.02 Unknown
03/22/2019 02:11 AM 37.76 -0.04 67.46 44.78 14.0 x 1.12 S 0.45 SW 3.58 S x x Other 02/14/2019 07:19 AM   x x x x x 31.02 Unknown
03/22/2019 02:12 AM 37.58 0.14 67.46 44.78 14.0 x 1.12 S 1.79 W 3.58 S x x Other 02/14/2019 07:19 AM   x x x x x 31.02 Unknown
03/22/2019 02:13 AM 37.76 0.68 67.46 44.78 15.0 x 1.57 NW 1.34 SW 3.58 S x x Other 02/14/2019 07:19 AM   x x x x x 31.02 Unknown
03/22/2019 02:15 AM 37.94 0.86 67.46 44.78 15.0 x 1.34 W 0.67 S 3.58 S x x Other 02/14/2019 07:19 AM   x x x x x 31.02 Unknown
03/22/2019 02:16 AM 38.12 1.04 67.46 44.78 15.0 x 1.34 NW 2.68 N 3.58 S x x Other 02/14/2019 07:19 AM   x x x x x 31.02 Unknown
03/22/2019 02:18 AM 38.30 1.76 67.46 44.78 15.0 x 2.01 NW 2.01 NW 4.03 W x x Other 02/14/2019 07:19 AM   x x x x x 31.02 Unknown
03/22/2019 02:19 AM 38.48 1.94 67.46 44.78 15.0 x 2.01 NW 2.24 NW 4.03 W x x Other 02/14/2019 07:19 AM   x x x x x 31.02 Unknown
03/22/2019 02:20 AM 38.84 2.30 67.46 44.78 15.0 x 2.68 NW 3.80 NW 4.25 W x x Other 02/14/2019 07:19 AM   x x x x x 31.02 Unknown
03/22/2019 02:21 AM 39.20 2.66 67.46 44.78 15.0 x 3.36 NW 2.91 NW 4.25 NW x x Other 02/14/2019 07:19 AM   x x x x x 31.02 Unknown
03/22/2019 02:22 AM 39.20 2.84 67.46 44.78 15.0 x 3.13 NW 3.58 W 4.25 NW x x Other 02/14/2019 07:19 AM   x x x x x 31.02 Unknown
03/22/2019 02:23 AM 39.38 3.20 67.46 44.78 15.0 x 2.68 NW 2.46 NW 4.25 NW x x Other 02/14/2019 07:19 AM   x x x x x 31.02 Unknown
03/22/2019 02:24 AM 39.38 3.20 67.46 44.78 15.0 x 2.46 NW 2.24 NW 4.25 NW x x Other 02/14/2019 07:19 AM   x x x x x 31.02 Unknown
03/22/2019 02:25 AM 39.56 3.02 67.46 44.78 15.0 x 2.46 W 2.24 W 4.25 NW x x Other 02/14/2019 07:19 AM   x x x x x 31.02 Unknown
03/22/2019 02:26 AM 39.56 3.20 67.46 44.78 15.0 x 2.24 W 3.13 NW 4.25 NW x x Other 02/14/2019 07:19 AM   x x x x x 31.02 Unknown
03/22/2019 02:27 AM 39.56 3.20 67.46 44.78 15.0 x 2.01 W 1.12 NW 4.25 NW x x Other 02/14/2019 07:19 AM   x x x x x 31.02 Unknown
03/22/2019 02:28 AM 39.74 3.38 67.46 44.78 15.0 x 2.24 W 1.79 W 4.25 NW x x Other 02/14/2019 07:19 AM   x x x x x 31.02 Unknown
03/22/2019 02:29 AM 39.74 3.38 67.46 44.78 15.0 x 2.46 W 4.03 NW 4.25 NW x x Other 02/14/2019 07:19 AM   x x x x x 31.02 Unknown
03/22/2019 02:30 AM 39.74 3.38 67.46 44.78 15.0 x 2.68 NW 0.45 SW 4.47 NW x x Other 02/14/2019 07:19 AM   x x x x x 31.02 Unknown
03/22/2019 02:31 AM 39.74 3.38 67.46 44.78 15.0 x 2.68 NW 2.68 NW 4.47 NW x x Other 02/14/2019 07:19 AM   x x x x x 31.02 Unknown
03/22/2019 02:32 AM 39.74 3.56 67.46 44.78 15.0 x 2.46 NW 3.58 NW 4.47 NW x x Other 02/14/2019 07:19 AM   x x x x x 31.02 Unknown
03/22/2019 02:33 AM 39.92 3.56 67.46 44.78 15.0 x 2.68 NW 2.24 NW 4.47 NW x x Other 02/14/2019 07:19 AM   x x x x x 31.02 Unknown
03/22/2019 02:34 AM 39.92 3.56 67.46 44.78 15.0 x 2.46 NW 2.91 NW 4.47 NW x x Other 02/14/2019 07:19 AM   x x x x x 31.02 Unknown
03/22/2019 02:35 AM 40.10 3.74 67.46 44.78 15.0 x 2.68 NW 3.36 NW 4.47 NW x x Other 02/14/2019 07:19 AM   x x x x x 31.02 Unknown
03/22/2019 02:36 AM 40.10 3.74 67.46 44.78 15.0 x 3.13 NW 2.91 NW 4.70 NW x x Other 02/14/2019 07:19 AM   x x x x x 31.02 Unknown
03/22/2019 02:37 AM 40.28 3.38 67.46 44.78 15.0 x 2.68 NW 1.57 W 4.70 NW x x Other 02/14/2019 07:19 AM   x x x x x 31.02 Unknown
03/22/2019 02:38 AM 40.28 3.20 67.46 44.78 15.0 x 2.68 NW 3.36 W 4.70 NW x x Other 02/14/2019 07:19 AM   x x x x x 31.02 Unknown
03/22/2019 02:39 AM 40.28 3.38 67.46 44.78 15.0 x 2.91 W 2.01 W 4.92 NW x x Other 02/14/2019 07:19 AM   x x x x x 31.02 Unknown
03/22/2019 02:40 AM 40.28 3.38 67.46 44.78 15.0 x 3.13 NW 3.13 NW 4.92 NW x x Other 02/14/2019 07:19 AM   x x x x x 31.02 Unknown
03/22/2019 02:41 AM 40.28 3.38 67.46 44.78 15.0 x 3.58 W 3.58 NW 5.59 NW x x Other 02/14/2019 07:19 AM   x x x x x 31.02 Unknown
03/22/2019 02:42 AM 40.46 3.56 67.46 44.78 15.0 x 4.03 W 3.58 NW 5.59 NW x x Other 02/14/2019 07:19 AM   x x x x x 31.02 Unknown
03/22/2019 02:43 AM 40.28 3.38 67.46 44.78 15.0 x 4.03 W 3.58 NW 5.59 NW x x Other 02/14/2019 07:19 AM   x x x x x 31.02 Unknown
03/22/2019 02:44 AM 40.28 3.38 67.46 44.78 15.0 x 3.58 W 3.80 W 5.59 NW x x Other 02/14/2019 07:19 AM   x x x x x 31.02 Unknown
03/22/2019 02:45 AM 40.46 3.02 67.46 44.78 14.0 x 3.58 NW 5.59 W 5.59 NW x x Other 02/14/2019 07:19 AM   x x x x x 31.02 Unknown
03/22/2019 02:46 AM 40.46 3.02 67.46 44.78 14.0 x 4.03 W 3.80 NW 5.59 NW x x Other 02/14/2019 07:19 AM   x x x x x 31.02 Unknown
03/22/2019 02:47 AM 40.46 3.02 67.46 44.78 14.0 x 4.25 W 4.92 NW 5.59 NW x x Other 02/14/2019 07:19 AM   x x x x x 31.02 Unknown
03/22/2019 02:48 AM 40.46 3.02 67.46 44.78 14.0 x 3.58 NW 2.91 W 5.59 NW x x Other 02/14/2019 07:19 AM   x x x x x 31.02 Unknown
03/22/2019 02:49 AM 40.46 3.02 67.46 44.78 14.0 x 3.36 NW 4.03 W 5.59 NW x x Other 02/14/2019 07:19 AM   x x x x x 31.02 Unknown
03/22/2019 02:50 AM 40.46 3.02 67.46 44.78 14.0 x 3.36 W 2.91 W 5.59 NW x x Other 02/14/2019 07:19 AM   x x x x x 31.02 Unknown
03/22/2019 02:51 AM 40.46 3.02 67.46 44.78 14.0 x 3.13 W 2.68 W 5.59 W x x Other 02/14/2019 07:19 AM   x x x x x 31.02 Unknown
03/22/2019 02:52 AM 40.46 2.84 67.46 44.78 14.0 x 2.91 W 3.80 W 5.59 W x x Other 02/14/2019 07:19 AM   x x x x x 31.02 Unknown
03/22/2019 02:53 AM 40.46 3.02 67.46 44.78 14.0 x 3.36 W 3.36 W 5.59 W x x Other 02/14/2019 07:19 AM   x x x x x 31.02 Unknown
03/22/2019 02:54 AM 40.64 2.48 67.46 44.78 14.0 x 3.58 W 3.13 W 5.59 W x x Other 02/14/2019 07:19 AM   x x x x x 31.02 Unknown
03/22/2019 02:55 AM 40.64 2.48 67.46 44.78 14.0 x 3.36 W 2.68 W 5.59 W x x Other 02/14/2019 07:19 AM   x x x x x 31.02 Unknown
03/22/2019 02:56 AM 40.64 2.48 67.46 44.78 14.0 x 3.58 W 2.68 NW 5.14 NW x x Other 02/14/2019 07:19 AM   x x x x x 31.02 Unknown
03/22/2019 02:57 AM 40.64 2.48 67.46 44.78 14.0 x 3.36 W 3.80 NW 4.92 W x x Other 02/14/2019 07:19 AM   x x x x x 31.02 Unknown
03/22/2019 02:58 AM 40.64 2.48 67.46 44.78 14.0 x 2.91 W 3.80 W 4.92 W x x Other 02/14/2019 07:19 AM   x x x x x 31.02 Unknown
03/22/2019 02:59 AM 40.46 2.48 67.46 44.78 14.0 x 3.13 W 3.13 W 4.92 NW x x Other 02/14/2019 07:19 AM   x x x x x 31.02 Unknown
03/22/2019 03:00 AM 40.46 2.48 67.46 44.78 14.0 x 3.13 W 2.01 S 4.92 NW x x Other 02/14/2019 07:19 AM   x x x x x 31.02 Unknown
03/22/2019 03:01 AM 40.46 2.48 67.46 44.78 14.0 x 3.13 W 2.68 W 4.92 NW x x Other 02/14/2019 07:19 AM   x x x x x 31.02 Unknown
03/22/2019 03:02 AM 40.46 2.48 67.46 44.78 14.0 x 3.13 W 3.80 W 4.92 NW x x Other 02/14/2019 07:19 AM   x x x x x 31.02 Unknown
03/22/2019 03:03 AM 40.46 2.48 67.46 44.78 14.0 x 3.36 W 3.13 NW 4.92 NW x x Other 02/14/2019 07:19 AM   x x x x x 31.02 Unknown
03/22/2019 03:04 AM 40.46 2.48 67.46 44.78 14.0 x 3.58 W 3.36 W 4.92 NW x x Other 02/14/2019 07:19 AM   x x x x x 31.02 Unknown
03/22/2019 03:05 AM 40.46 2.48 67.46 44.78 14.0 x 3.58 W 4.03 W 4.92 NW x x Other 02/14/2019 07:19 AM   x x x x x 31.02 Unknown
03/22/2019 03:06 AM 40.46 2.48 67.46 44.78 14.0 x 3.13 W 1.79 W 4.92 NW x x Other 02/14/2019 07:19 AM   x x x x x 31.02 Unknown
03/22/2019 03:07 AM 40.46 2.48 67.46 44.78 14.0 x 3.36 W 3.58 W 4.92 NW x x Other 02/14/2019 07:19 AM   x x x x x 31.02 Unknown
03/22/2019 03:08 AM 40.46 2.48 67.46 44.78 14.0 x 4.03 W 4.03 NW 5.82 W x x Other 02/14/2019 07:19 AM   x x x x x 31.02 Unknown
03/22/2019 03:09 AM 40.46 2.48 67.46 44.78 14.0 x 4.25 NW 3.58 W 5.82 W x x Other 02/14/2019 07:19 AM   x x x x x 31.02 Unknown
03/22/2019 03:10 AM 40.46 2.48 67.46 44.78 14.0 x 3.58 W 4.25 NW 5.82 W x x Other 02/14/2019 07:19 AM   x x x x x 31.02 Unknown
03/22/2019 03:11 AM 40.46 2.48 67.46 44.78 14.0 x 3.36 W 4.03 NW 5.82 W x x Other 02/14/2019 07:19 AM   x x x x x 31.02 Unknown
03/22/2019 03:12 AM 40.46 2.30 67.46 44.78 14.0 x 3.80 W 3.58 NW 5.82 W x x Other 02/14/2019 07:19 AM   x x x x x 31.02 Unknown
03/22/2019 03:13 AM 40.46 2.30 67.46 44.78 14.0 x 4.03 NW 4.03 NW 5.82 W x x Other 02/14/2019 07:19 AM   x x x x x 31.02 Unknown
03/22/2019 03:14 AM 40.46 2.48 67.46 44.78 14.0 x 3.80 NW 2.91 NW 5.82 W x x Other 02/14/2019 07:19 AM   x x x x x 31.02 Unknown
03/22/2019 03:15 AM 40.46 2.48 67.46 44.78 14.0 x 3.58 NW 4.03 NW 5.82 W x x Other 02/14/2019 07:19 AM   x x x x x 31.02 Unknown
03/22/2019 03:16 AM 40.46 2.48 67.46 44.78 14.0 x 3.58 NW 4.25 W 5.82 W x x Other 02/14/2019 07:19 AM   x x x x x 31.02 Unknown
03/22/2019 03:17 AM 40.46 2.48 67.46 44.78 14.0 x 3.58 NW 3.80 NW 5.82 W x x Other 02/14/2019 07:19 AM   x x x x x 31.02 Unknown
03/22/2019 03:18 AM 40.64 2.48 67.46 44.78 14.0 x 3.13 NW 3.36 N 5.37 NW x x Other 02/14/2019 07:19 AM   x x x x x 31.02 Unknown
03/22/2019 03:19 AM 40.64 2.48 67.46 44.78 14.0 x 3.13 NW 4.70 NW 5.14 NW x x Other 02/14/2019 07:19 AM   x x x x x 31.02 Unknown
03/22/2019 03:20 AM 40.64 2.48 67.46 44.78 14.0 x 4.25 NW 3.80 NW 6.04 NW x x Other 02/14/2019 07:19 AM   x x x x x 31.02 Unknown
03/22/2019 03:21 AM 40.64 2.48 67.46 44.78 14.0 x 4.25 NW 4.47 N 6.04 NW x x Other 02/14/2019 07:19 AM   x x x x x 31.02 Unknown
03/22/2019 03:22 AM 40.64 2.48 67.46 44.78 14.0 x 3.80 NW 2.46 N 6.04 NW x x Other 02/14/2019 07:19 AM   x x x x x 31.02 Unknown
03/22/2019 03:23 AM 40.64 2.48 67.46 44.78 14.0 x 3.36 NW 3.13 N 6.04 NW x x Other 02/14/2019 07:19 AM   x x x x x 31.02 Unknown
03/22/2019 03:24 AM 40.64 2.66 67.46 44.78 14.0 x 2.68 NW 2.46 N 6.04 NW x x Other 02/14/2019 07:19 AM   x x x x x 31.02 Unknown
03/22/2019 03:26 AM 40.82 2.84 67.46 44.78 14.0 x 2.01 N 3.58 N 6.04 NW x x Other 02/14/2019 07:19 AM   x x x x x 31.02 Unknown
03/22/2019 03:27 AM 40.82 2.84 67.46 44.78 14.0 x 2.46 N 3.58 N 6.04 NW x x Other 02/14/2019 07:19 AM   x x x x x 31.02 Unknown
03/22/2019 03:28 AM 41.00 2.84 67.46 44.78 14.0 x 2.91 NW 2.68 NW 6.04 NW x x Other 02/14/2019 07:19 AM   x x x x x 31.02 Unknown
03/22/2019 03:29 AM 40.82 2.84 67.46 44.78 14.0 x 3.13 NW 3.80 N 6.04 NW x x Other 02/14/2019 07:19 AM   x x x x x 31.02 Unknown
03/22/2019 03:30 AM 40.82 2.84 67.46 44.78 14.0 x 3.58 NW 3.58 N 5.37 NW x x Other 02/14/2019 07:19 AM   x x x x x 31.02 Unknown
03/22/2019 03:31 AM 40.82 3.02 67.46 44.78 14.0 x 2.91 NW 2.24 NW 5.37 NW x x Other 02/14/2019 07:19 AM   x x x x x 31.02 Unknown
03/22/2019 03:32 AM 40.82 3.02 67.46 44.78 14.0 x 2.68 NW 3.36 NW 5.37 NW x x Other 02/14/2019 07:19 AM   x x x x x 31.02 Unknown
03/22/2019 03:33 AM 41.00 2.84 67.46 44.78 14.0 x 3.36 NW 3.58 N 5.37 NW x x Other 02/14/2019 07:19 AM   x x x x x 31.02 Unknown
03/22/2019 03:34 AM 41.00 2.84 67.46 44.78 14.0 x 3.80 NW 4.47 NW 5.37 NW x x Other 02/14/2019 07:19 AM   x x x x x 31.02 Unknown
03/22/2019 03:35 AM 41.00 2.84 67.46 44.78 14.0 x 3.36 NW 3.36 N 5.37 NW x x Other 02/14/2019 07:19 AM   x x x x x 31.02 Unknown
03/22/2019 03:36 AM 41.00 3.02 67.46 44.78 14.0 x 3.58 NW 3.13 NW 5.59 NW x x Other 02/14/2019 07:19 AM   x x x x x 31.02 Unknown
03/22/2019 03:37 AM 41.00 3.02 67.46 44.78 14.0 x 3.58 NW 4.03 NW 5.59 NW x x Other 02/14/2019 07:19 AM   x x x x x 31.02 Unknown
03/22/2019 03:38 AM 41.00 2.48 67.46 44.78 14.0 x 3.36 NW 4.25 NW 5.59 NW x x Other 02/14/2019 07:19 AM   x x x x x 31.02 Unknown
03/22/2019 03:39 AM 41.00 2.48 67.46 44.78 14.0 x 3.58 NW 4.03 NW 5.59 NW x x Other 02/14/2019 07:19 AM   x x x x x 31.02 Unknown
03/22/2019 03:40 AM 41.00 2.30 67.46 44.78 14.0 x 3.36 NW 3.36 NW 5.59 NW x x Other 02/14/2019 07:19 AM   x x x x x 31.02 Unknown
03/22/2019 03:41 AM 41.00 2.30 67.46 44.78 14.0 x 3.13 NW 2.68 W 5.59 NW x x Other 02/14/2019 07:19 AM   x x x x x 31.02 Unknown
03/22/2019 03:42 AM 41.00 2.48 67.46 44.78 14.0 x 2.68 W 2.68 W 5.59 NW x x Other 02/14/2019 07:19 AM   x x x x x 31.02 Unknown
03/22/2019 03:43 AM 40.82 2.30 67.46 44.78 14.0 x 2.91 NW 3.58 NW 5.59 NW x x Other 02/14/2019 07:19 AM   x x x x x 31.02 Unknown
03/22/2019 03:44 AM 40.82 2.30 67.46 44.78 14.0 x 3.36 NW 3.80 NW 5.59 NW x x Other 02/14/2019 07:19 AM   x x x x x 31.02 Unknown
03/22/2019 03:45 AM 40.82 2.30 67.46 44.78 14.0 x 3.58 NW 3.36 NW 5.59 NW x x Other 02/14/2019 07:19 AM   x x x x x 31.02 Unknown
03/22/2019 03:46 AM 40.82 2.30 67.46 44.78 14.0 x 3.80 W 3.58 NW 5.14 NW x x Other 02/14/2019 07:19 AM   x x x x x 31.02 Unknown
03/22/2019 03:47 AM 40.82 2.30 67.46 44.78 14.0 x 3.58 W 3.13 NW 5.14 NW x x Other 02/14/2019 07:19 AM   x x x x x 31.02 Unknown
03/22/2019 03:48 AM 40.82 2.30 67.46 44.78 14.0 x 3.58 NW 3.80 NW 5.37 NW x x Other 02/14/2019 07:19 AM   x x x x x 31.02 Unknown
03/22/2019 03:49 AM 40.82 2.30 67.46 44.78 14.0 x 3.58 NW 3.36 NW 5.37 NW x x Other 02/14/2019 07:19 AM   x x x x x 31.02 Unknown
03/22/2019 03:50 AM 40.82 2.30 67.46 44.78 14.0 x 3.58 NW 2.91 NW 5.37 NW x x Other 02/14/2019 07:19 AM   x x x x x 31.02 Unknown
03/22/2019 03:51 AM 40.82 2.30 67.46 44.78 14.0 x 3.36 NW 2.46 NW 5.37 NW x x Other 02/14/2019 07:19 AM   x x x x x 31.02 Unknown
03/22/2019 03:52 AM 40.82 2.30 67.46 44.78 14.0 x 3.13 NW 5.14 W 5.37 NW x x Other 02/14/2019 07:19 AM   x x x x x 31.02 Unknown
03/22/2019 03:53 AM 40.82 2.30 67.46 44.78 14.0 x 3.36 NW 3.13 NW 5.37 NW x x Other 02/14/2019 07:19 AM   x x x x x 31.02 Unknown
03/22/2019 03:54 AM 40.82 2.30 67.46 44.78 14.0 x 2.91 NW 4.47 NW 5.37 NW x x Other 02/14/2019 07:19 AM   x x x x x 31.02 Unknown
03/22/2019 03:55 AM 40.64 2.12 67.46 44.78 14.0 x 2.68 NW 2.24 NW 5.37 NW x x Other 02/14/2019 07:19 AM   x x x x x 31.02 Unknown
03/22/2019 03:56 AM 40.64 2.12 67.46 44.78 14.0 x 2.24 NW 1.34 W 5.37 NW x x Other 02/14/2019 07:19 AM   x x x x x 31.02 Unknown
03/22/2019 03:57 AM 40.64 2.12 67.46 44.78 14.0 x 1.79 NW 1.57 N 5.37 NW x x Other 02/14/2019 07:19 AM   x x x x x 31.02 Unknown
03/22/2019 03:58 AM 40.64 2.12 67.46 44.78 14.0 x 1.57 NW 0.89 W 5.14 W x x Other 02/14/2019 07:19 AM   x x x x x 31.02 Unknown
03/22/2019 03:59 AM 40.64 2.30 67.46 44.78 14.0 x 1.34 NW 2.68 NW 5.14 W x x Other 02/14/2019 07:19 AM   x x x x x 31.02 Unknown
03/22/2019 04:00 AM 40.64 1.94 67.46 44.78 14.0 x 2.24 NW 1.79 NW 5.14 W x x Other 02/14/2019 07:19 AM   x x x x x 31.02 Unknown
03/22/2019 04:01 AM 40.64 2.12 67.46 44.78 14.0 x 2.68 NW 2.68 NW 5.14 W x x Other 02/14/2019 07:19 AM   x x x x x 31.02 Unknown
03/22/2019 04:02 AM 40.46 1.94 67.46 44.78 14.0 x 2.46 NW 1.79 NW 4.47 NW x x Other 02/14/2019 07:19 AM   x x x x x 31.02 Unknown
03/22/2019 04:03 AM 40.46 1.94 67.46 44.78 14.0 x 1.79 NW 0.89 W 4.47 NW x x Other 02/14/2019 07:19 AM   x x x x x 31.02 Unknown
03/22/2019 04:04 AM 40.46 1.76 67.46 44.78 14.0 x 1.34 NW 0.67 NW 4.03 NW x x Other 02/14/2019 07:19 AM   x x x x x 31.02 Unknown
03/22/2019 04:05 AM 40.28 1.76 67.46 44.78 14.0 x 2.01 NW 2.46 NW 4.03 NW x x Other 02/14/2019 07:19 AM   x x x x x 31.02 Unknown
03/22/2019 04:06 AM 40.28 1.76 67.46 44.78 14.0 x 2.46 NW 4.03 NW 4.03 NW x x Other 02/14/2019 07:19 AM   x x x x x 31.02 Unknown
03/22/2019 04:07 AM 40.28 1.76 67.46 44.78 14.0 x 2.91 NW 2.68 NW 4.03 NW x x Other 02/14/2019 07:19 AM   x x x x x 31.02 Unknown
03/22/2019 04:08 AM 40.10 1.58 67.46 44.78 14.0 x 3.13 NW 3.36 NW 4.03 NW x x Other 02/14/2019 07:19 AM   x x x x x 31.02 Unknown
03/22/2019 04:09 AM 40.10 1.40 67.46 44.78 14.0 x 2.68 NW 2.01 NW 4.03 NW x x Other 02/14/2019 07:19 AM   x x x x x 31.02 Unknown
03/22/2019 04:10 AM 40.28 2.12 67.46 44.78 14.0 x 2.46 NW 2.24 NW 4.03 NW x x Other 02/14/2019 07:19 AM   x x x x x 31.02 Unknown
03/22/2019 04:11 AM 40.28 2.12 67.46 44.78 14.0 x 2.24 NW 2.91 NW 4.03 NW x x Other 02/14/2019 07:19 AM   x x x x x 31.02 Unknown
03/22/2019 04:12 AM 40.10 1.94 67.46 44.78 14.0 x 2.24 NW 1.57 NW 4.03 NW x x Other 02/14/2019 07:19 AM   x x x x x 31.02 Unknown
03/22/2019 04:13 AM 40.28 2.12 67.46 44.78 14.0 x 1.57 NW 1.34 NW 4.03 NW x x Other 02/14/2019 07:19 AM   x x x x x 31.02 Unknown
03/22/2019 04:14 AM 40.28 2.12 67.46 44.78 14.0 x 1.12 NW 1.12 NW 4.03 NW x x Other 02/14/2019 07:19 AM   x x x x x 31.02 Unknown
03/22/2019 04:15 AM 40.10 1.94 67.46 44.78 14.0 x 1.12 NW 0.45 NW 4.03 NW x x Other 02/14/2019 07:19 AM   x x x x x 31.02 Unknown
03/22/2019 04:16 AM 40.10 1.94 67.46 44.78 14.0 x 1.34 W 2.01 W 3.80 NW x x Other 02/14/2019 07:19 AM   x x x x x 31.02 Unknown
03/22/2019 04:17 AM 39.92 1.94 67.46 44.78 14.0 x 2.01 NW 2.46 NW 3.58 NW x x Other 02/14/2019 07:19 AM   x x x x x 31.02 Unknown
03/22/2019 04:18 AM 39.92 1.94 67.46 44.78 14.0 x 2.24 NW 1.34 W 3.58 NW x x Other 02/14/2019 07:19 AM   x x x x x 31.02 Unknown
03/22/2019 04:19 AM 39.92 1.94 67.46 44.78 14.0 x 1.57 NW 0.45 NW 3.58 NW x x Other 02/14/2019 07:19 AM   x x x x x 31.02 Unknown
03/22/2019 04:20 AM 39.92 1.94 67.46 44.78 14.0 x 0.89 NW 1.12 NW 3.58 NW x x Other 02/14/2019 07:19 AM   x x x x x 31.02 Unknown
03/22/2019 04:21 AM 39.92 1.94 67.46 44.78 14.0 x 0.89 E 1.12 W 3.58 NW x x Other 02/14/2019 07:19 AM   x x x x x 31.02 Unknown
03/22/2019 04:22 AM 39.92 1.94 67.46 44.78 14.0 x 1.57 NW 2.46 NW 3.58 NW x x Other 02/14/2019 07:19 AM   x x x x x 31.02 Unknown
03/22/2019 04:23 AM 39.92 1.94 67.46 44.78 14.0 x 1.79 NW 2.24 NW 3.58 NW x x Other 02/14/2019 07:19 AM   x x x x x 31.02 Unknown
03/22/2019 04:24 AM 39.92 1.94 67.46 44.78 14.0 x 2.24 NW 1.79 NW 3.58 NW x x Other 02/14/2019 07:19 AM   x x x x x 31.02 Unknown
03/22/2019 04:25 AM 39.92 1.94 67.46 44.78 14.0 x 2.01 NW 1.34 NW 3.58 NW x x Other 02/14/2019 07:19 AM   x x x x x 31.02 Unknown
03/22/2019 04:26 AM 39.92 2.30 67.46 44.78 14.0 x 2.24 NW 2.91 NW 3.58 NW x x Other 02/14/2019 07:19 AM   x x x x x 31.02 Unknown
03/22/2019 04:27 AM 39.92 2.30 67.46 44.78 14.0 x 2.68 NW 4.03 NW 4.03 NW x x Other 02/14/2019 07:19 AM   x x x x x 31.02 Unknown
03/22/2019 04:28 AM 39.92 2.30 67.46 44.78 14.0 x 2.91 NW 2.01 N 4.03 NW x x Other 02/14/2019 07:19 AM   x x x x x 31.02 Unknown
03/22/2019 04:29 AM 39.92 2.30 67.46 44.78 14.0 x 2.68 NW 1.79 NW 4.03 NW x x Other 02/14/2019 07:19 AM   x x x x x 31.02 Unknown
03/22/2019 04:30 AM 39.92 2.30 67.46 44.78 14.0 x 2.24 NW 1.57 NW 4.03 NW x x Other 02/14/2019 07:19 AM   x x x x x 31.02 Unknown
03/22/2019 04:32 AM 39.92 2.30 67.46 44.78 14.0 x 1.57 NW 0.22 NW 4.03 NW x x Other 02/14/2019 07:19 AM   x x x x x 31.02 Unknown
03/22/2019 04:33 AM 39.92 2.30 67.46 44.78 14.0 x 1.57 NW 2.46 NW 4.03 NW x x Other 02/14/2019 07:19 AM   x x x x x 31.02 Unknown
03/22/2019 04:34 AM 39.92 2.30 67.46 44.78 14.0 x 2.01 NW 2.01 N 4.03 NW x x Other 02/14/2019 07:19 AM   x x x x x 31.02 Unknown
03/22/2019 04:35 AM 39.92 2.48 67.46 44.78 14.0 x 2.68 NW 4.25 NW 4.03 NW x x Other 02/14/2019 07:19 AM   x x x x x 31.02 Unknown
03/22/2019 04:36 AM 39.92 2.48 67.46 44.78 14.0 x 2.68 NW 2.91 NW 4.25 NW x x Other 02/14/2019 07:19 AM   x x x x x 31.02 Unknown
03/22/2019 04:37 AM 39.92 2.48 67.46 44.78 14.0 x 2.68 NW 1.57 NW 4.25 NW x x Other 02/14/2019 07:19 AM   x x x x x 31.02 Unknown
03/22/2019 04:38 AM 39.92 2.48 67.46 44.78 14.0 x 2.68 NW 4.70 N 4.70 NW x x Other 02/14/2019 07:19 AM   x x x x x 31.02 Unknown
03/22/2019 04:39 AM 39.92 2.48 67.46 44.78 14.0 x 2.91 N 1.57 NW 4.70 NW x x Other 02/14/2019 07:19 AM   x x x x x 31.02 Unknown
03/22/2019 04:40 AM 39.74 2.30 67.46 44.78 14.0 x 2.68 N 2.46 N 4.70 NW x x Other 02/14/2019 07:19 AM   x x x x x 31.02 Unknown
03/22/2019 04:41 AM 39.56 1.94 67.46 44.78 14.0 x 2.24 NW 2.01 NW 4.70 NW x x Other 02/14/2019 07:19 AM   x x x x x 31.02 Unknown
03/22/2019 04:42 AM 39.38 1.58 67.46 44.78 14.0 x 2.24 N 1.57 N 4.70 NW x x Other 02/14/2019 07:19 AM   x x x x x 31.02 Unknown
03/22/2019 04:43 AM 39.20 1.58 67.46 44.78 14.0 x 1.57 N 1.12 NE 4.70 NW x x Other 02/14/2019 07:19 AM   x x x x x 31.02 Unknown
03/22/2019 04:44 AM 39.20 1.40 67.46 44.78 14.0 x 2.01 N 3.13 NE 4.70 NW x x Other 02/14/2019 07:19 AM   x x x x x 31.02 Unknown
03/22/2019 04:45 AM 38.84 1.22 67.46 44.78 14.0 x 3.36 NE 4.92 NE 4.70 NW x x Other 02/14/2019 07:19 AM   x x x x x 31.02 Unknown
03/22/2019 04:46 AM 38.84 1.04 67.46 44.78 14.0 x 4.25 NE 3.58 NE 4.92 NE x x Other 02/14/2019 07:19 AM   x x x x x 31.02 Unknown
03/22/2019 04:47 AM 38.48 0.86 67.46 44.78 14.0 x 3.80 NE 2.91 NE 4.92 NE x x Other 02/14/2019 07:19 AM   x x x x x 31.02 Unknown
03/22/2019 04:48 AM 38.48 0.86 67.46 44.78 14.0 x 2.68 NE 1.79 NE 4.92 NE x x Other 02/14/2019 07:19 AM   x x x x x 31.02 Unknown
03/22/2019 04:49 AM 38.30 0.86 67.46 44.78 14.0 x 2.24 NE 1.57 NE 4.92 NE x x Other 02/14/2019 07:19 AM   x x x x x 31.02 Unknown
03/22/2019 04:50 AM 38.30 0.68 67.46 44.78 14.0 x 2.01 NE 1.79 NE 4.92 NE x x Other 02/14/2019 07:19 AM   x x x x x 31.02 Unknown
03/22/2019 04:51 AM 37.94 0.32 67.46 44.78 14.0 x 1.79 NE 2.01 NE 4.92 NE x x Other 02/14/2019 07:19 AM   x x x x x 31.02 Unknown
03/22/2019 04:52 AM 37.94 0.32 67.46 44.78 14.0 x 1.79 NE 1.57 NE 4.92 NE x x Other 02/14/2019 07:19 AM   x x x x x 31.02 Unknown
03/22/2019 04:53 AM 37.76 0.50 67.46 44.78 15.0 x 1.79 NE 1.79 NE 4.92 NE x x Other 02/14/2019 07:19 AM   x x x x x 31.02 Unknown
03/22/2019 04:54 AM 37.58 0.50 67.46 44.78 15.0 x 1.79 NE 2.24 NE 4.92 NE x x Other 02/14/2019 07:19 AM   x x x x x 31.02 Unknown
03/22/2019 04:55 AM 37.58 0.32 67.46 44.78 15.0 x 2.01 NE 2.46 NE 4.70 NE x x Other 02/14/2019 07:19 AM   x x x x x 31.02 Unknown
03/22/2019 04:56 AM 37.40 0.14 67.46 44.78 15.0 x 2.46 NE 2.91 NE 3.13 NE x x Other 02/14/2019 07:19 AM   x x x x x 31.02 Unknown
03/22/2019 04:57 AM 37.22 0.14 67.46 44.60 15.0 x 2.68 NE 2.91 E 3.36 NE x x Other 02/14/2019 07:19 AM   x x x x x 31.02 Unknown
03/22/2019 04:59 AM 36.86 0.14 67.46 44.06 15.0 x 2.91 E 2.91 E 3.36 E x x Other 02/14/2019 07:19 AM   x x x x x 31.02 Unknown
03/22/2019 05:00 AM 36.68 0.14 67.46 43.88 15.0 x 2.68 E 2.46 E 3.36 E x x Other 02/14/2019 07:19 AM   x x x x x 31.02 Unknown
03/22/2019 05:01 AM 36.68 -0.04 67.46 43.70 15.0 x 2.46 E 2.01 E 3.36 E x x Other 02/14/2019 07:19 AM   x x x x x 31.02 Unknown
03/22/2019 05:02 AM 36.50 0.14 67.46 43.70 15.0 x 2.01 E 2.01 E 3.36 E x x Other 02/14/2019 07:19 AM   x x x x x 31.02 Unknown
03/22/2019 05:03 AM 36.32 0.14 67.46 43.52 15.0 x 2.24 E 2.46 E 3.36 E x x Other 02/14/2019 07:19 AM   x x x x x 31.02 Unknown
03/22/2019 05:04 AM 36.14 -0.04 67.46 43.34 15.0 x 2.46 NE 2.68 NE 3.36 E x x Other 02/14/2019 07:19 AM   x x x x x 31.02 Unknown
03/22/2019 05:05 AM 36.14 -0.04 67.46 43.16 15.0 x 2.68 NE 2.46 NE 3.36 E x x Other 02/14/2019 07:19 AM   x x x x x 31.02 Unknown
03/22/2019 05:06 AM 36.14 -0.04 67.46 43.16 16.0 x 2.68 NE 2.46 NE 3.36 E x x Other 02/14/2019 07:19 AM   x x x x x 31.02 Unknown
03/22/2019 05:07 AM 35.96 0.32 67.46 42.98 16.0 x 2.68 NE 3.13 NE 3.36 E x x Other 02/14/2019 07:19 AM   x x x x x 31.02 Unknown
03/22/2019 05:08 AM 35.96 0.32 67.46 42.98 16.0 x 2.91 NE 2.91 NE 3.80 NE x x Other 02/14/2019 07:19 AM   x x x x x 31.02 Unknown
03/22/2019 05:09 AM 35.96 0.32 67.46 42.98 16.0 x 3.13 NE 3.36 NE 3.80 NE x x Other 02/14/2019 07:19 AM   x x x x x 31.02 Unknown
03/22/2019 05:10 AM 35.78 0.14 67.46 42.80 16.0 x 2.91 NE 2.91 NE 3.80 NE x x Other 02/14/2019 07:19 AM   x x x x x 31.02 Unknown
03/22/2019 05:11 AM 35.78 0.68 67.46 42.80 16.0 x 2.68 NE 2.91 N 3.80 NE x x Other 02/14/2019 07:19 AM   x x x x x 31.02 Unknown
03/22/2019 05:12 AM 35.96 0.68 67.46 42.80 16.0 x 2.91 NE 3.13 NE 3.80 NE x x Other 02/14/2019 07:19 AM   x x x x x 31.02 Unknown
03/22/2019 05:13 AM 35.96 0.68 67.46 42.80 16.0 x 2.91 NE 2.46 NE 3.80 NE x x Other 02/14/2019 07:19 AM   x x x x x 31.02 Unknown
03/22/2019 05:14 AM 35.78 1.22 67.46 42.80 17.0 x 2.91 NE 3.80 NE 3.80 NE x x Other 02/14/2019 07:19 AM   x x x x x 31.02 Unknown
03/22/2019 05:15 AM 35.78 1.22 67.46 42.80 17.0 x 3.58 NE 4.03 NE 4.03 NE x x Other 02/14/2019 07:19 AM   x x x x x 31.02 Unknown
03/22/2019 05:16 AM 35.78 1.04 67.46 42.80 17.0 x 3.80 NE 3.36 NE 4.03 NE x x Other 02/14/2019 07:19 AM   x x x x x 31.02 Unknown
03/22/2019 05:17 AM 35.78 1.04 67.46 42.80 17.0 x 3.58 NE 3.58 NE 4.03 NE x x Other 02/14/2019 07:19 AM   x x x x x 31.02 Unknown
03/22/2019 05:18 AM 35.60 1.04 67.46 42.62 17.0 x 3.58 NE 3.36 NE 4.03 NE x x Other 02/14/2019 07:19 AM   x x x x x 31.02 Unknown
03/22/2019 05:19 AM 35.42 1.04 67.46 42.44 17.0 x 3.36 NE 2.91 NE 4.03 NE x x Other 02/14/2019 07:19 AM   x x x x x 31.02 Unknown
03/22/2019 05:20 AM 35.42 1.22 67.46 42.44 17.0 x 3.36 NE 3.58 NE 4.03 NE x x Other 02/14/2019 07:19 AM   x x x x x 31.02 Unknown
03/22/2019 05:21 AM 35.42 1.22 67.46 42.44 17.0 x 3.58 NE 3.58 NE 4.03 NE x x Other 02/14/2019 07:19 AM   x x x x x 31.02 Unknown
03/22/2019 05:22 AM 35.24 1.04 67.46 42.26 17.0 x 3.58 NE 3.58 NE 4.03 NE x x Other 02/14/2019 07:19 AM   x x x x x 31.02 Unknown
03/22/2019 05:23 AM 35.06 0.86 67.46 42.08 17.0 x 3.36 NE 3.58 NE 4.03 NE x x Other 02/14/2019 07:19 AM   x x x x x 31.02 Unknown
03/22/2019 05:24 AM 34.88 0.68 67.46 41.90 17.0 x 3.58 NE 4.03 NE 4.03 NE x x Other 02/14/2019 07:19 AM   x x x x x 31.02 Unknown
03/22/2019 05:25 AM 34.88 0.68 67.46 41.72 17.0 x 3.80 NE 4.25 NE 4.25 NE x x Other 02/14/2019 07:19 AM   x x x x x 31.02 Unknown
03/22/2019 05:26 AM 34.70 0.86 67.46 41.54 17.0 x 3.80 NE 3.58 NE 4.25 NE x x Other 02/14/2019 07:19 AM   x x x x x 31.02 Unknown
03/22/2019 05:27 AM 34.70 0.86 67.46 41.54 17.0 x 3.58 NE 3.13 NE 4.25 NE x x Other 02/14/2019 07:19 AM   x x x x x 31.02 Unknown
03/22/2019 05:28 AM 34.70 0.86 67.46 41.54 17.0 x 3.36 NE 3.58 NE 4.25 NE x x Other 02/14/2019 07:19 AM   x x x x x 31.02 Unknown
03/22/2019 05:29 AM 34.52 0.86 67.46 41.36 17.0 x 3.58 NE 4.03 NE 4.25 NE x x Other 02/14/2019 07:19 AM   x x x x x 31.02 Unknown
03/22/2019 05:30 AM 34.52 0.86 67.46 41.36 17.0 x 3.80 NE 3.36 NE 4.25 NE x x Other 02/14/2019 07:19 AM   x x x x x 31.02 Unknown
03/22/2019 05:32 AM 34.34 1.04 67.46 41.18 18.0 x 3.36 NE 3.80 NE 4.25 NE x x Other 02/14/2019 07:19 AM   x x x x x 31.02 Unknown
03/22/2019 05:33 AM 34.34 1.04 67.46 41.18 18.0 x 4.03 NE 4.47 NE 4.70 NE x x Other 02/14/2019 07:19 AM   x x x x x 31.02 Unknown
03/22/2019 05:34 AM 34.34 1.04 67.46 41.18 18.0 x 4.47 NE 4.70 NE 4.92 NE x x Other 02/14/2019 07:19 AM   x x x x x 31.02 Unknown
03/22/2019 05:35 AM 34.34 1.04 67.46 41.18 18.0 x 4.47 NE 4.47 NE 4.92 NE x x Other 02/14/2019 07:19 AM   x x x x x 31.02 Unknown
03/22/2019 05:36 AM 34.34 1.04 67.46 41.18 18.0 x 4.47 NE 4.70 NE 4.92 NE x x Other 02/14/2019 07:19 AM   x x x x x 31.02 Unknown
03/22/2019 05:37 AM 34.16 0.86 67.46 41.00 18.0 x 4.70 NE 5.14 NE 5.14 NE x x Other 02/14/2019 07:19 AM   x x x x x 31.02 Unknown
03/22/2019 05:38 AM 34.16 0.86 67.46 41.00 18.0 x 4.70 NE 4.92 NE 5.14 NE x x Other 02/14/2019 07:19 AM   x x x x x 31.02 Unknown
03/22/2019 05:39 AM 33.98 1.04 67.46 40.82 18.0 x 4.70 NE 4.25 NE 5.14 NE x x Other 02/14/2019 07:19 AM   x x x x x 31.02 Unknown
03/22/2019 05:40 AM 33.98 1.22 67.46 40.82 18.0 x 4.47 NE 4.47 NE 5.14 NE x x Other 02/14/2019 07:19 AM   x x x x x 31.02 Unknown
03/22/2019 05:41 AM 33.98 1.04 67.46 40.64 18.0 x 4.25 NE 4.25 NE 5.14 NE x x Other 02/14/2019 07:19 AM   x x x x x 31.02 Unknown
03/22/2019 05:42 AM 33.98 1.04 67.46 40.64 18.0 x 4.25 NE 4.03 NE 5.14 NE x x Other 02/14/2019 07:19 AM   x x x x x 31.02 Unknown
03/22/2019 05:43 AM 33.80 0.86 67.46 40.46 18.0 x 4.03 NE 4.03 NE 5.14 NE x x Other 02/14/2019 07:19 AM   x x x x x 31.02 Unknown
03/22/2019 05:44 AM 33.80 1.04 67.46 40.46 18.0 x 4.03 NE 4.03 NE 5.14 NE x x Other 02/14/2019 07:19 AM   x x x x x 31.02 Unknown
03/22/2019 05:45 AM 33.62 0.86 67.46 40.28 18.0 x 4.03 NE 3.80 NE 5.14 NE x x Other 02/14/2019 07:19 AM   x x x x x 31.02 Unknown
03/22/2019 05:46 AM 33.62 0.86 67.46 40.28 18.0 x 3.80 NE 3.80 NE 5.14 NE x x Other 02/14/2019 07:19 AM   x x x x x 31.02 Unknown
03/22/2019 05:47 AM 33.62 0.86 67.46 40.28 18.0 x 3.80 NE 3.80 NE 5.14 NE x x Other 02/14/2019 07:19 AM   x x x x x 31.02 Unknown
03/22/2019 05:48 AM 33.62 1.22 67.46 40.28 18.0 x 3.58 NE 3.58 NE 4.70 NE x x Other 02/14/2019 07:19 AM   x x x x x 31.02 Unknown
03/22/2019 05:49 AM 33.62 1.22 67.46 40.28 18.0 x 3.36 NE 3.13 NE 4.70 NE x x Other 02/14/2019 07:19 AM   x x x x x 31.02 Unknown
03/22/2019 05:50 AM 33.62 1.22 67.46 40.28 18.0 x 2.91 NE 3.13 NE 4.47 NE x x Other 02/14/2019 07:19 AM   x x x x x 31.02 Unknown
03/22/2019 05:51 AM 33.62 1.22 67.46 40.28 18.0 x 2.68 NE 2.46 NE 4.47 NE x x Other 02/14/2019 07:19 AM   x x x x x 31.02 Unknown
03/22/2019 05:52 AM 33.80 1.40 67.46 40.28 18.0 x 2.46 NE 2.91 NE 4.25 NE x x Other 02/14/2019 07:19 AM   x x x x x 31.02 Unknown
03/22/2019 05:53 AM 33.80 1.40 67.46 40.28 18.0 x 2.68 NE 2.68 NE 4.25 NE x x Other 02/14/2019 07:19 AM   x x x x x 31.02 Unknown
03/22/2019 05:54 AM 33.80 1.40 67.46 40.28 18.0 x 2.68 NE 2.24 NE 4.03 NE x x Other 02/14/2019 07:19 AM   x x x x x 31.02 Unknown
03/22/2019 05:55 AM 33.80 1.40 67.46 40.28 18.0 x 2.68 NE 2.68 NE 4.03 NE x x Other 02/14/2019 07:19 AM   x x x x x 31.02 Unknown
03/22/2019 05:56 AM 33.80 1.40 67.46 40.28 18.0 x 2.91 NE 2.91 NE 4.03 NE x x Other 02/14/2019 07:19 AM   x x x x x 31.02 Unknown
03/22/2019 05:57 AM 33.80 1.40 67.46 40.28 18.0 x 2.91 NE 2.46 NE 3.80 NE x x Other 02/14/2019 07:19 AM   x x x x x 31.02 Unknown
03/22/2019 05:58 AM 33.98 1.58 67.46 40.28 18.0 x 2.46 NE 2.24 NE 3.58 NE x x Other 02/14/2019 07:19 AM   x x x x x 31.02 Unknown
03/22/2019 05:59 AM 33.98 1.58 67.46 40.28 18.0 x 2.01 NE 1.34 NE 3.36 NE x x Other 02/14/2019 07:19 AM   x x x x x 31.02 Unknown
03/22/2019 06:00 AM 34.16 1.76 67.46 40.28 18.0 x 1.34 NE 1.12 E 3.36 NE x x Other 02/14/2019 07:19 AM   x x x x x 31.02 Unknown
03/22/2019 06:01 AM 34.16 2.12 67.46 40.28 19.0 x 0.89 NE 2.68 S 3.36 NE x x Other 02/14/2019 07:19 AM   x x x x x 31.02 Unknown
03/22/2019 06:02 AM 34.52 2.48 67.46 40.28 19.0 x 1.57 NE 1.79 S 3.36 NE x x Other 02/14/2019 07:19 AM   x x x x x 31.02 Unknown
03/22/2019 06:03 AM 34.70 2.84 67.46 40.28 19.0 x 2.24 S 2.91 SE 3.58 S x x Other 02/14/2019 07:19 AM   x x x x x 31.02 Unknown
03/22/2019 06:04 AM 34.88 2.84 67.46 40.28 19.0 x 2.24 S 3.13 S 3.58 S x x Other 02/14/2019 07:19 AM   x x x x x 31.02 Unknown
03/22/2019 06:05 AM 34.88 2.84 67.46 40.28 19.0 x 2.68 S 2.24 S 3.58 S x x Other 02/14/2019 07:19 AM   x x x x x 31.02 Unknown
03/22/2019 06:06 AM 34.88 2.84 67.46 40.28 19.0 x 2.01 S 0.45 S 3.58 S x x Other 02/14/2019 07:19 AM   x x x x x 31.02 Unknown
03/22/2019 06:07 AM 34.88 2.84 67.46 40.28 19.0 x 1.12 SE 0.89 SE 3.58 S x x Other 02/14/2019 07:19 AM   x x x x x 31.02 Unknown
03/22/2019 06:08 AM 34.88 2.84 67.46 40.28 19.0 x 1.34 SE 5.14 S 3.58 S x x Other 02/14/2019 07:19 AM   x x x x x 31.02 Unknown
03/22/2019 06:09 AM 34.88 3.02 67.46 40.28 19.0 x 2.68 SE 1.79 S 5.59 S x x Other 02/14/2019 07:19 AM   x x x x x 31.02 Unknown
03/22/2019 06:10 AM 35.06 3.20 67.46 40.28 19.0 x 3.80 S 2.68 S 5.59 S x x Other 02/14/2019 07:19 AM   x x x x x 31.02 Unknown
03/22/2019 06:11 AM 35.06 3.20 67.46 40.28 19.0 x 3.13 S 2.24 S 5.59 S x x Other 02/14/2019 07:19 AM   x x x x x 31.02 Unknown
03/22/2019 06:12 AM 35.06 3.20 67.46 40.28 19.0 x 2.68 S 4.25 S 5.59 S x x Other 02/14/2019 07:19 AM   x x x x x 31.02 Unknown
03/22/2019 06:13 AM 35.06 3.20 67.46 40.28 19.0 x 2.91 S 1.79 SE 5.59 S x x Other 02/14/2019 07:19 AM   x x x x x 31.02 Unknown
03/22/2019 06:14 AM 34.88 3.02 67.46 40.28 19.0 x 2.24 S 0.45 SE 5.59 S x x Other 02/14/2019 07:19 AM   x x x x x 31.02 Unknown
03/22/2019 06:15 AM 34.88 3.02 67.46 40.28 19.0 x 1.34 S 1.79 SE 5.59 S x x Other 02/14/2019 07:19 AM   x x x x x 31.02 Unknown
03/22/2019 06:16 AM 34.88 3.02 67.46 40.28 19.0 x 2.01 S 2.46 S 5.59 S x x Other 02/14/2019 07:19 AM   x x x x x 31.02 Unknown
03/22/2019 06:17 AM 34.88 3.02 67.46 40.28 19.0 x 2.91 S 2.46 S 5.59 S x x Other 02/14/2019 07:19 AM   x x x x x 31.02 Unknown
03/22/2019 06:18 AM 34.88 3.02 67.46 40.28 19.0 x 2.68 S 1.12 W 5.37 S x x Other 02/14/2019 07:19 AM   x x x x x 31.02 Unknown
03/22/2019 06:19 AM 34.88 3.02 67.46 40.28 19.0 x 1.57 S 3.13 NW 4.70 S x x Other 02/14/2019 07:19 AM   x x x x x 31.02 Unknown
03/22/2019 06:20 AM 34.88 3.02 67.46 40.28 19.0 x 2.01 NW 1.12 N 4.70 S x x Other 02/14/2019 07:19 AM   x x x x x 31.02 Unknown
03/22/2019 06:21 AM 34.88 3.02 67.46 40.28 19.0 x 1.57 NW 0.45 NW 4.70 S x x Other 02/14/2019 07:19 AM   x x x x x 31.02 Unknown
03/22/2019 06:22 AM 34.88 x 67.46 40.28 19.0 x 0.67 NW 2.68 SW 4.70 S x x Other 02/14/2019 07:19 AM   x x x x x 31.02 Unknown
03/22/2019 06:23 AM 34.88 3.02 67.46 40.28 19.0 x 1.34 SW 1.57 SW 4.25 S x x Other 02/14/2019 07:19 AM   x x x x x 31.02 Unknown
03/22/2019 06:24 AM 34.88 3.02 67.46 40.28 19.0 x 2.24 SW 2.46 S 4.25 S x x Other 02/14/2019 07:19 AM   x x x x x 31.02 Unknown
03/22/2019 06:25 AM 34.88 3.02 67.46 40.28 19.0 x 2.24 S 2.24 S 4.25 S x x Other 02/14/2019 07:19 AM   x x x x x 31.02 Unknown
03/22/2019 06:26 AM 35.06 3.02 67.46 40.28 19.0 x 2.01 S 1.79 SW 4.25 S x x Other 02/14/2019 07:19 AM   x x x x x 31.02 Unknown
03/22/2019 06:27 AM 35.06 3.20 67.46 40.28 19.0 x 1.57 S 1.57 S 3.58 S x x Other 02/14/2019 07:19 AM   x x x x x 31.02 Unknown
03/22/2019 06:28 AM 35.06 3.20 67.46 40.28 19.0 x 1.34 S 1.12 S 3.58 S x x Other 02/14/2019 07:19 AM   x x x x x 31.02 Unknown
03/22/2019 06:29 AM 35.24 3.38 67.46 40.28 19.0 x 1.79 S 2.91 S 4.25 SW x x Other 02/14/2019 07:19 AM   x x x x x 31.02 Unknown
03/22/2019 06:30 AM 35.24 3.38 67.46 40.28 19.0 x 2.24 SW 1.79 SW 4.25 SW x x Other 02/14/2019 07:19 AM   x x x x x 31.02 Unknown
03/22/2019 06:31 AM 35.24 3.38 67.46 40.28 19.0 x 2.24 SW 2.46 SW 4.25 SW x x Other 02/14/2019 07:19 AM   x x x x x 31.02 Unknown
03/22/2019 06:32 AM 35.06 3.20 67.46 40.28 19.0 x 2.24 SW 1.79 W 4.25 SW x x Other 02/14/2019 07:19 AM   x x x x x 31.02 Unknown
03/22/2019 06:33 AM 35.06 3.20 67.46 40.28 19.0 x 2.01 SW 1.12 SW 4.25 SW x x Other 02/14/2019 07:19 AM   x x x x x 31.02 Unknown
03/22/2019 06:34 AM 35.06 3.20 67.46 40.28 19.0 x 1.79 SW 1.57 SW 4.25 SW x x Other 02/14/2019 07:19 AM   x x x x x 31.02 Unknown
03/22/2019 06:35 AM 35.06 3.20 67.46 40.28 19.0 x 2.01 SW 2.91 SW 4.25 SW x x Other 02/14/2019 07:19 AM   x x x x x 31.02 Unknown
03/22/2019 06:36 AM 35.06 3.20 67.46 40.28 19.0 x 2.24 SW 2.24 SW 4.25 SW x x Other 02/14/2019 07:19 AM   x x x x x 31.02 Unknown
03/22/2019 06:37 AM 34.88 2.84 67.46 40.28 19.0 x 2.46 SW 2.68 SW 4.25 SW x x Other 02/14/2019 07:19 AM   x x x x x 31.02 Unknown
03/22/2019 06:38 AM 34.70 2.84 67.46 40.28 19.0 x 2.68 SW 2.91 SW 4.25 SW x x Other 02/14/2019 07:19 AM   x x x x x 31.02 Unknown
03/22/2019 06:39 AM 34.52 2.66 67.46 40.28 19.0 x 2.68 SW 2.24 SW 3.36 W x x Other 02/14/2019 07:19 AM   x x x x x 31.02 Unknown
03/22/2019 06:40 AM 34.52 2.48 67.46 40.28 19.0 x 2.91 SW 2.91 SW 3.36 W x x Other 02/14/2019 07:19 AM   x x x x x 31.02 Unknown
03/22/2019 06:41 AM 34.34 2.48 67.46 40.28 19.0 x 2.91 SW 3.13 SW 3.36 W x x Other 02/14/2019 07:19 AM   x x x x x 31.02 Unknown
03/22/2019 06:42 AM 34.16 2.30 67.46 40.28 19.0 x 3.13 SW 2.91 SW 3.36 W x x Other 02/14/2019 07:19 AM   x x x x x 31.02 Unknown
03/22/2019 06:43 AM 34.16 2.30 67.46 40.28 19.0 x 3.13 SW 3.13 SW 3.58 SW x x Other 02/14/2019 07:19 AM   x x x x x 31.02 Unknown
03/22/2019 06:44 AM 34.16 2.30 67.46 40.28 19.0 x 3.13 SW 3.13 SW 3.58 SW x x Other 02/14/2019 07:19 AM   x x x x x 31.02 Unknown
03/22/2019 06:45 AM 34.16 2.30 67.46 40.28 19.0 x 2.91 SW 3.13 SW 3.58 SW x x Other 02/14/2019 07:19 AM   x x x x x 31.02 Unknown
03/22/2019 06:47 AM 34.52 2.48 67.46 40.28 19.0 x 3.13 SW 3.13 SW 4.03 SW x x Other 02/14/2019 07:19 AM   x x x x x 31.02 Unknown
03/22/2019 06:48 AM 34.52 2.48 67.46 40.28 19.0 x 3.13 SW 2.24 W 4.03 SW x x Other 02/14/2019 07:19 AM   x x x x x 31.02 Unknown
03/22/2019 06:50 AM 34.70 2.84 67.46 40.28 19.0 x 2.68 SW 2.01 SW 4.03 SW x x Other 02/14/2019 07:19 AM   x x x x x 31.02 Unknown
03/22/2019 06:52 AM 34.70 2.84 67.46 40.28 19.0 x 2.91 SW 3.13 W 4.03 SW x x Other 02/14/2019 07:19 AM   x x x x x 31.02 Unknown
03/22/2019 06:53 AM 34.70 2.84 67.46 40.28 19.0 x 3.13 SW 3.80 SW 4.03 SW x x Other 02/14/2019 07:19 AM   x x x x x 31.02 Unknown
03/22/2019 06:54 AM 34.88 2.84 67.46 40.28 19.0 x 3.13 SW 3.13 SW 4.03 SW x x Other 02/14/2019 07:19 AM   x x x x x 31.02 Unknown
03/22/2019 06:55 AM 34.88 2.84 67.46 40.28 19.0 x 3.13 SW 2.91 S 4.03 SW x x Other 02/14/2019 07:19 AM   x x x x x 31.02 Unknown
03/22/2019 06:56 AM 34.88 3.02 67.46 40.28 19.0 x 2.91 SW 3.13 S 4.25 SW x x Other 02/14/2019 07:19 AM   x x x x x 31.02 Unknown
03/22/2019 06:57 AM 35.24 3.38 67.46 40.28 19.0 x 3.36 S 1.79 x 5.59 S x x Other 02/14/2019 07:19 AM   x x x x x 31.02 Unknown
03/22/2019 06:58 AM 35.24 3.38 67.46 40.28 19.0 x 2.91 SW 1.57 S 5.59 S x x Other 02/14/2019 07:19 AM   x x x x x 31.02 Unknown
03/22/2019 06:59 AM 35.24 3.38 67.46 40.28 19.0 x 2.01 SW 3.13 SW 5.59 S x x Other 02/14/2019 07:19 AM   x x x x x 31.02 Unknown
03/22/2019 07:00 AM 35.24 3.38 67.46 40.28 19.0 x 2.24 SW 3.13 SW 5.59 S x x Other 02/14/2019 07:19 AM   x x x x x 31.02 Unknown
03/22/2019 07:01 AM 35.42 3.56 67.46 40.28 19.0 x 2.46 SW 2.01 SW 5.59 S x x Other 02/14/2019 07:19 AM   x x x x x 31.02 Unknown
03/22/2019 07:02 AM 35.60 3.74 67.46 40.28 19.0 x 2.01 SW 3.13 SW 5.59 S x x Other 02/14/2019 07:19 AM   x x x x x 31.02 Unknown
03/22/2019 07:03 AM 35.60 3.74 67.46 40.28 19.0 x 2.91 SW 4.25 SW 5.59 S x x Other 02/14/2019 07:19 AM   x x x x x 31.02 Unknown
03/22/2019 07:04 AM 35.42 3.56 67.46 40.28 19.0 x 4.25 SW 5.59 SW 6.49 SW x x Other 02/14/2019 07:19 AM   x x x x x 31.02 Unknown
03/22/2019 07:05 AM 35.24 3.38 67.46 40.28 19.0 x 4.92 SW 5.59 S 6.49 SW x x Other 02/14/2019 07:19 AM   x x x x x 31.02 Unknown
03/22/2019 07:06 AM 35.06 3.20 67.46 40.28 19.0 x 5.59 SW 6.26 SW 6.71 SW x x Other 02/14/2019 07:19 AM   x x x x x 31.02 Unknown
03/22/2019 07:07 AM 34.88 3.02 67.46 40.28 19.0 x 6.26 SW 6.71 SW 6.71 SW x x Other 02/14/2019 07:19 AM   x x x x x 31.02 Unknown
03/22/2019 07:08 AM 34.88 2.84 67.46 40.28 19.0 x 6.26 SW 6.04 SW 6.71 SW x x Other 02/14/2019 07:19 AM   x x x x x 31.02 Unknown
03/22/2019 07:09 AM 34.70 2.84 67.46 40.28 19.0 x 5.82 SW 6.49 SW 6.71 SW x x Other 02/14/2019 07:19 AM   x x x x x 31.02 Unknown
03/22/2019 07:10 AM 34.70 2.84 67.46 40.28 19.0 x 5.82 SW 6.71 SW 7.16 SW x x Other 02/14/2019 07:19 AM   x x x x x 31.02 Unknown
03/22/2019 07:11 AM 34.52 2.66 67.46 40.28 19.0 x 6.49 SW 5.82 SW 7.38 SW x x Other 02/14/2019 07:19 AM   x x x x x 31.02 Unknown
03/22/2019 07:12 AM 34.34 2.48 67.46 40.28 19.0 x 6.26 SW 6.93 SW 7.38 SW x x Other 02/14/2019 07:19 AM   x x x x x 31.02 Unknown
03/22/2019 07:13 AM 34.34 2.48 67.46 40.28 19.0 x 6.49 SW 6.93 SW 7.38 SW x x Other 02/14/2019 07:19 AM   x x x x x 31.02 Unknown
03/22/2019 07:14 AM 34.16 2.30 67.46 40.28 19.0 x 6.71 SW 6.49 SW 7.38 SW x x Other 02/14/2019 07:19 AM   x x x x x 31.02 Unknown
03/22/2019 07:15 AM 34.16 2.30 67.46 40.28 19.0 x 6.49 SW 6.93 SW 7.38 SW x x Other 02/14/2019 07:19 AM   x x x x x 31.02 Unknown
03/22/2019 07:16 AM 34.16 2.30 67.46 40.28 19.0 x 6.49 SW 5.82 SW 7.38 SW x x Other 02/14/2019 07:19 AM   x x x x x 31.02 Unknown
03/22/2019 07:17 AM 34.16 2.30 67.46 40.28 19.0 x 6.71 SW 6.26 SW 7.38 SW x x Other 02/14/2019 07:19 AM   x x x x x 31.02 Unknown
03/22/2019 07:18 AM 34.16 2.30 67.46 40.28 19.0 x 6.04 SW 5.37 SW 7.38 SW x x Other 02/14/2019 07:19 AM   x x x x x 31.02 Unknown
03/22/2019 07:19 AM 34.16 2.30 67.46 40.28 19.0 x 5.37 SW 4.47 W 7.38 SW x x Other 02/14/2019 07:19 AM   x x x x x 31.02 Unknown
03/22/2019 07:20 AM 34.16 2.30 67.46 40.28 19.0 x 4.92 SW 5.37 W 7.38 SW x x Other 02/14/2019 07:19 AM   x x x x x 31.02 Unknown
03/22/2019 07:21 AM 34.16 2.12 67.46 40.28 19.0 x 4.70 W 4.92 W 7.38 SW x x Other 02/14/2019 07:19 AM   x x x x x 31.02 Unknown
03/22/2019 07:23 AM 33.98 1.94 67.46 40.28 19.0 x 4.92 W 5.14 W 7.38 SW x x Other 02/14/2019 07:19 AM   x x x x x 31.02 Unknown
03/22/2019 07:24 AM 33.98 1.94 67.46 40.28 19.0 x 5.14 W 5.37 W 7.38 SW x x Other 02/14/2019 07:19 AM   x x x x x 31.02 Unknown
03/22/2019 07:25 AM 33.98 1.94 67.46 40.28 19.0 x 5.59 SW 5.59 W 7.38 SW x x Other 02/14/2019 07:19 AM   x x x x x 31.02 Unknown
03/22/2019 07:26 AM 34.16 2.12 67.46 40.28 19.0 x 4.92 SW 3.13 W 7.38 SW x x Other 02/14/2019 07:19 AM   x x x x x 31.02 Unknown
03/22/2019 07:27 AM 34.16 2.30 67.46 40.28 19.0 x 4.25 SW 4.70 SW 6.26 SW x x Other 02/14/2019 07:19 AM   x x x x x 31.02 Unknown
03/22/2019 07:28 AM 34.34 2.48 67.46 40.28 19.0 x 4.70 SW 2.91 W 6.04 W x x Other 02/14/2019 07:19 AM   x x x x x 31.02 Unknown
03/22/2019 07:29 AM 34.52 2.48 67.46 40.28 19.0 x 4.47 SW 3.80 SW 6.04 W x x Other 02/14/2019 07:19 AM   x x x x x 31.02 Unknown
03/22/2019 07:30 AM 34.52 2.66 67.46 40.28 19.0 x 4.25 SW 4.03 SW 6.04 W x x Other 02/14/2019 07:19 AM   x x x x x 31.02 Unknown
03/22/2019 07:31 AM 34.70 2.84 67.46 40.28 19.0 x 4.70 W 4.70 SW 6.04 W x x Other 02/14/2019 07:19 AM   x x x x x 31.02 Unknown
03/22/2019 07:32 AM 34.88 2.84 67.46 40.28 19.0 x 4.47 W 3.58 W 6.04 W x x Other 02/14/2019 07:19 AM   x x x x x 31.02 Unknown
03/22/2019 07:33 AM 34.88 3.02 67.46 40.28 19.0 x 4.25 W 3.36 SW 6.04 W x x Other 02/14/2019 07:19 AM   x x x x x 31.02 Unknown
03/22/2019 07:34 AM 35.06 3.20 67.46 40.28 19.0 x 4.25 SW 4.47 W 6.04 SW x x Other 02/14/2019 07:19 AM   x x x x x 31.02 Unknown
03/22/2019 07:35 AM 35.24 3.38 67.46 40.28 19.0 x 4.47 W 4.25 SW 5.82 SW x x Other 02/14/2019 07:19 AM   x x x x x 31.02 Unknown
03/22/2019 07:37 AM 35.60 3.74 67.46 40.28 19.0 x 4.25 W 4.92 W 5.82 SW x x Other 02/14/2019 07:19 AM   x x x x x 31.02 Unknown
03/22/2019 07:38 AM 35.60 3.92 67.46 40.28 19.0 x 4.03 W 4.25 W 5.82 SW x x Other 02/14/2019 07:19 AM   x x x x x 31.02 Unknown
03/22/2019 07:39 AM 35.78 3.92 67.46 40.28 19.0 x 4.25 SW 4.47 W 5.82 SW x x Other 02/14/2019 07:19 AM   x x x x x 31.02 Unknown
03/22/2019 07:40 AM 35.96 4.28 67.46 40.28 19.0 x 4.25 SW 3.58 SW 5.37 W x x Other 02/14/2019 07:19 AM   x x x x x 31.02 Unknown
03/22/2019 07:41 AM 36.14 4.46 67.46 40.28 19.0 x 4.03 SW 4.92 SW 5.59 W x x Other 02/14/2019 07:19 AM   x x x x x 31.02 Unknown
03/22/2019 07:42 AM 36.32 4.64 67.46 40.28 19.0 x 4.25 SW 3.58 W 6.26 W x x Other 02/14/2019 07:19 AM   x x x x x 31.02 Unknown
03/22/2019 07:43 AM 36.50 4.82 67.46 40.28 19.0 x 4.92 W 5.82 W 6.26 W x x Other 02/14/2019 07:19 AM   x x x x x 31.02 Unknown
03/22/2019 07:44 AM 36.68 5.00 67.46 40.28 19.0 x 4.70 W 4.25 W 6.26 W x x Other 02/14/2019 07:19 AM   x x x x x 31.02 Unknown
03/22/2019 07:45 AM 36.86 5.18 67.46 40.28 19.0 x 4.25 W 4.03 W 6.26 W x x Other 02/14/2019 07:19 AM   x x x x x 31.02 Unknown
03/22/2019 07:46 AM 37.04 5.36 67.46 40.28 19.0 x 3.80 W 3.80 W 6.26 W x x Other 02/14/2019 07:19 AM   x x x x x 31.02 Unknown
03/22/2019 07:47 AM 37.22 5.36 67.46 40.28 19.0 x 3.80 W 5.82 W 6.26 W x x Other 02/14/2019 07:19 AM   x x x x x 31.02 Unknown
03/22/2019 07:48 AM 37.40 5.36 67.46 40.28 18.0 x 4.47 W 5.82 W 6.26 W x x Other 02/14/2019 07:19 AM   x x x x x 31.02 Unknown
03/22/2019 07:49 AM x 5.18 67.46 40.28 18.0 x 4.70 W 4.70 W 6.26 W x x Other 02/14/2019 07:19 AM   x x x x x 31.02 Unknown
03/22/2019 07:50 AM 37.58 5.54 67.46 40.28 18.0 x 4.92 W 4.70 W 6.26 W x x Other 02/14/2019 07:19 AM   x x x x x 31.02 Unknown
03/22/2019 07:51 AM 37.76 5.72 67.46 40.28 18.0 x 4.92 W 4.03 W 6.26 W x x Other 02/14/2019 07:19 AM   x x x x x 31.02 Unknown
03/22/2019 07:52 AM 37.94 5.72 67.46 40.28 18.0 x 4.47 W 3.80 W 6.26 W x x Other 02/14/2019 07:19 AM   x x x x x 31.02 Unknown
03/22/2019 07:53 AM 37.94 5.90 67.46 40.28 18.0 x 4.25 W 4.25 W 6.04 NW x x Other 02/14/2019 07:19 AM   x x x x x 31.02 Unknown
03/22/2019 07:54 AM 38.12 6.08 67.46 40.28 18.0 x 3.80 W 3.13 W 6.04 NW x x Other 02/14/2019 07:19 AM   x x x x x 31.02 Unknown
03/22/2019 07:55 AM 38.30 5.72 67.46 40.28 18.0 x 3.58 W 4.03 SW 6.04 NW x x Other 02/14/2019 07:19 AM   x x x x x 31.02 Unknown
03/22/2019 07:56 AM 38.30 5.72 67.46 40.28 18.0 x 3.80 W 4.03 W 6.04 NW x x Other 02/14/2019 07:19 AM   x x x x x 31.02 Unknown
03/22/2019 07:57 AM 38.30 5.90 67.46 40.28 18.0 x 3.80 W 2.91 SW 6.04 NW x x Other 02/14/2019 07:19 AM   x x x x x 31.02 Unknown
03/22/2019 07:58 AM 38.48 5.90 67.46 40.28 18.0 x 3.58 W 4.47 W 6.04 W x x Other 02/14/2019 07:19 AM   x x x x x 31.02 Unknown
03/22/2019 07:59 AM 38.66 5.72 67.46 40.28 18.0 x 3.58 W 2.68 W 6.04 W x x Other 02/14/2019 07:19 AM   x x x x x 31.02 Unknown
03/22/2019 08:00 AM 38.66 5.90 67.46 40.28 18.0 x 3.58 W 3.13 W 5.59 W x x Other 02/14/2019 07:19 AM   x x x x x 31.02 Unknown
03/22/2019 08:01 AM 38.84 5.90 67.46 40.28 18.0 x 4.03 W 4.03 W 6.04 W x x Other 02/14/2019 07:19 AM   x x x x x 31.02 Unknown
03/22/2019 08:02 AM 39.02 5.72 67.46 40.28 17.0 x 4.25 W 4.03 W 6.04 W x x Other 02/14/2019 07:19 AM   x x x x x 31.02 Unknown
03/22/2019 08:03 AM 39.20 5.72 67.46 40.28 17.0 x 4.03 W 4.70 W 6.04 W x x Other 02/14/2019 07:19 AM   x x x x x 31.02 Unknown
03/22/2019 08:04 AM 39.20 5.90 67.46 40.28 17.0 x 4.47 W 5.37 W 8.05 W x x Other 02/14/2019 07:19 AM   x x x x x 31.02 Unknown
03/22/2019 08:05 AM 39.38 5.54 67.46 40.28 17.0 x 5.14 W 2.46 NW 8.05 W x x Other 02/14/2019 07:19 AM   x x x x x 31.02 Unknown
03/22/2019 08:07 AM 39.74 5.36 67.46 40.28 17.0 x 4.03 W 2.91 W 8.05 W x x Other 02/14/2019 07:19 AM   x x x x x 31.02 Unknown
03/22/2019 08:08 AM 39.74 4.82 67.46 40.28 16.0 x 4.70 W 5.37 W 8.05 W x x Other 02/14/2019 07:19 AM   x x x x x 31.02 Unknown
03/22/2019 08:09 AM 39.74 5.00 67.46 40.28 16.0 x 4.92 W 4.92 W 8.05 W x x Other 02/14/2019 07:19 AM   x x x x x 31.02 Unknown
03/22/2019 08:10 AM 39.92 4.64 67.46 40.28 16.0 x 5.37 W 6.71 W 8.05 W x x Other 02/14/2019 07:19 AM   x x x x x 31.02 Unknown
03/22/2019 08:11 AM 39.92 4.64 67.46 40.28 16.0 x 4.92 W 5.37 W 8.05 W x x Other 02/14/2019 07:19 AM   x x x x x 31.02 Unknown
03/22/2019 08:12 AM 40.10 4.28 67.46 40.28 15.0 x 4.47 W 2.68 W 8.05 W x x Other 02/14/2019 07:19 AM   x x x x x 31.02 Unknown
03/22/2019 08:13 AM 40.28 4.46 67.46 40.28 15.0 x 4.47 W 4.47 W 8.05 W x x Other 02/14/2019 07:19 AM   x x x x x 31.02 Unknown
03/22/2019 08:14 AM 40.46 4.10 67.46 40.28 15.0 x 4.25 W 5.59 W 7.38 W x x Other 02/14/2019 07:19 AM   x x x x x 31.02 Unknown
03/22/2019 08:15 AM 40.46 4.10 67.46 40.28 15.0 x 4.47 W 4.03 W 7.38 W x x Other 02/14/2019 07:19 AM   x x x x x 31.02 Unknown
03/22/2019 08:16 AM 40.64 3.92 67.46 40.28 15.0 x 4.25 W 3.36 W 7.38 W x x Other 02/14/2019 07:19 AM   x x x x x 31.02 Unknown
03/22/2019 08:17 AM 40.82 3.92 67.46 40.28 15.0 x 4.03 W 4.47 W 7.38 W x x Other 02/14/2019 07:19 AM   x x x x x 31.02 Unknown
03/22/2019 08:18 AM 41.00 3.56 67.46 40.28 14.0 x 4.03 NW 3.58 W 7.38 W x x Other 02/14/2019 07:19 AM   x x x x x 31.02 Unknown
03/22/2019 08:19 AM 41.18 3.74 67.46 40.28 14.0 x 4.25 NW 4.25 W 7.38 W x x Other 02/14/2019 07:19 AM   x x x x x 31.02 Unknown
03/22/2019 08:20 AM 41.36 3.56 67.46 40.28 14.0 x 4.25 W 3.58 NW 6.04 W x x Other 02/14/2019 07:19 AM   x x x x x 31.02 Unknown
03/22/2019 08:21 AM 41.54 3.38 67.46 40.28 14.0 x 3.58 W 4.70 NW 5.82 NW x x Other 02/14/2019 07:19 AM   x x x x x 31.02 Unknown
03/22/2019 08:23 AM 41.90 2.48 67.46 40.28 13.0 x 3.80 W 4.03 NW 5.82 NW x x Other 02/14/2019 07:19 AM   x x x x x 31.02 Unknown
03/22/2019 08:24 AM 42.08 2.30 67.46 40.28 13.0 x 3.80 W 3.36 NW 5.82 W x x Other 02/14/2019 07:19 AM   x x x x x 31.02 Unknown
03/22/2019 08:25 AM 42.08 2.12 67.46 40.28 13.0 x 3.58 NW 3.58 NW 5.82 W x x Other 02/14/2019 07:19 AM   x x x x x 31.02 Unknown
03/22/2019 08:26 AM 42.26 1.94 67.46 40.28 13.0 x 3.58 NW 4.25 W 5.82 W x x Other 02/14/2019 07:19 AM   x x x x x 31.02 Unknown
03/22/2019 08:27 AM 42.44 1.40 67.46 40.28 12.0 x 4.47 NW 4.92 NW 6.71 NW x x Other 02/14/2019 07:19 AM   x x x x x 31.02 Unknown
03/22/2019 08:28 AM 42.80 0.86 67.46 40.28 12.0 x 5.14 W 4.70 W 6.71 NW x x Other 02/14/2019 07:19 AM   x x x x x 31.02 Unknown
03/22/2019 08:29 AM 42.80 1.40 67.46 40.28 12.0 x 5.37 NW 4.25 NW 6.71 NW x x Other 02/14/2019 07:19 AM   x x x x x 31.02 Unknown
03/22/2019 08:30 AM 42.98 0.50 67.46 40.28 12.0 x 4.92 NW 3.80 NW 6.71 NW x x Other 02/14/2019 07:19 AM   x x x x x 31.02 Unknown
03/22/2019 08:31 AM 43.16 -0.04 67.46 40.28 11.0 x 5.37 NW 6.26 W 8.28 W x x Other 02/14/2019 07:19 AM   x x x x x 31.02 Unknown
03/22/2019 08:32 AM 43.34 -0.76 67.46 40.28 11.0 x 6.04 W 5.59 NW 8.28 W x x Other 02/14/2019 07:19 AM   x x x x x 31.02 Unknown
03/22/2019 08:33 AM 43.34 -1.48 67.46 40.28 10.0 x 5.59 W 3.36 W 8.28 W x x Other 02/14/2019 07:19 AM   x x x x x 31.02 Unknown
03/22/2019 08:34 AM 43.52 -1.30 67.46 40.28 10.0 x 4.47 NW 4.92 NW 8.28 W x x Other 02/14/2019 07:19 AM   x x x x x 31.02 Unknown
03/22/2019 08:35 AM 43.70 -1.84 67.46 40.28 10.0 x 5.14 NW 6.71 W 8.28 W x x Other 02/14/2019 07:19 AM   x x x x x 31.02 Unknown
03/22/2019 08:36 AM 43.88 -2.56 67.46 40.28 10.0 x 5.37 NW 4.25 NW 8.28 W x x Other 02/14/2019 07:19 AM   x x x x x 31.02 Unknown
03/22/2019 08:37 AM 44.06 -2.74 67.46 40.28 10.0 x 4.70 NW 3.58 NW 8.28 W x x Other 02/14/2019 07:19 AM   x x x x x 31.02 Unknown
03/22/2019 08:38 AM 44.06 -2.74 67.46 40.28 10.0 x 4.25 NW 2.24 SW 8.28 W x x Other 02/14/2019 07:19 AM   x x x x x 31.02 Unknown
03/22/2019 08:39 AM 44.24 -2.56 67.46 40.28 10.0 x 4.47 NW 6.04 NW 8.28 W x x Other 02/14/2019 07:19 AM   x x x x x 31.02 Unknown
03/22/2019 08:40 AM 44.42 -2.56 67.46 40.28 10.0 x 4.92 NW 5.14 NW 8.28 W x x Other 02/14/2019 07:19 AM   x x x x x 31.02 Unknown
03/22/2019 08:41 AM 44.42 -2.38 67.46 40.28 10.0 x 4.92 NW 4.25 W 7.38 NW x x Other 02/14/2019 07:19 AM   x x x x x 31.02 Unknown
03/22/2019 08:42 AM 44.60 -2.20 67.46 40.28 10.0 x 4.25 NW 4.47 NW 7.16 NW x x Other 02/14/2019 07:19 AM   x x x x x 31.02 Unknown
03/22/2019 08:43 AM 44.78 -2.02 67.46 40.28 10.0 x 3.80 NW 2.24 NW 7.16 NW x x Other 02/14/2019 07:19 AM   x x x x x 31.02 Unknown
03/22/2019 08:44 AM 44.78 -2.02 67.46 40.28 10.0 x 4.03 NW 4.70 NW 7.16 NW x x Other 02/14/2019 07:19 AM   x x x x x 31.02 Unknown
03/22/2019 08:45 AM 44.96 -1.84 67.46 40.28 10.0 x 4.47 NW 4.47 NW 6.49 NW x x Other 02/14/2019 07:19 AM   x x x x x 31.02 Unknown
03/22/2019 08:46 AM 44.96 -1.66 67.46 40.28 10.0 x 4.25 NW 4.03 NW 6.49 NW x x Other 02/14/2019 07:19 AM   x x x x x 31.02 Unknown
03/22/2019 08:47 AM 45.14 -1.66 67.46 40.28 10.0 x 4.03 NW 4.92 NW 6.49 NW x x Other 02/14/2019 07:19 AM   x x x x x 31.02 Unknown
03/22/2019 08:48 AM 45.32 -1.48 67.46 40.28 10.0 x 4.25 NW 4.25 N 6.49 NW x x Other 02/14/2019 07:19 AM   x x x x x 31.02 Unknown
03/22/2019 08:49 AM 45.32 -1.30 67.46 40.28 10.0 x 4.03 NW 1.79 NW 6.26 NW x x Other 02/14/2019 07:19 AM   x x x x x 31.02 Unknown
03/22/2019 08:50 AM 45.50 -1.30 67.46 40.28 10.0 x 3.58 NW 4.47 NW 6.26 NW x x Other 02/14/2019 07:19 AM   x x x x x 31.02 Unknown
03/22/2019 08:51 AM 45.68 -1.12 67.46 40.28 10.0 x 3.13 NW 2.68 NW 5.59 NW x x Other 02/14/2019 07:19 AM   x x x x x 31.02 Unknown
03/22/2019 08:52 AM 45.68 -0.94 67.46 40.28 10.0 x 3.58 NW 3.58 NW 5.59 NW x x Other 02/14/2019 07:19 AM   x x x x x 31.02 Unknown
03/22/2019 08:53 AM 45.86 -0.94 67.46 40.28 10.0 x 3.58 NW 3.36 NW 5.59 NW x x Other 02/14/2019 07:19 AM   x x x x x 31.02 Unknown
03/22/2019 08:54 AM 46.04 -0.76 67.46 40.28 10.0 x 3.36 NW 2.46 NW 5.59 NW x x Other 02/14/2019 07:19 AM   x x x x x 31.02 Unknown
03/22/2019 08:55 AM 46.04 -0.58 67.46 40.28 10.0 x 3.13 NW 3.58 N 5.59 NW x x Other 02/14/2019 07:19 AM   x x x x x 31.02 Unknown
03/22/2019 08:56 AM 46.22 -0.58 67.46 40.28 10.0 x 2.91 NW 3.36 NW 5.59 NW x x Other 02/14/2019 07:19 AM   x x x x x 31.02 Unknown
03/22/2019 08:58 AM 46.40 -0.22 67.46 40.28 10.0 x 2.68 NW 2.91 NW 4.70 NW x x Other 02/14/2019 07:19 AM   x x x x x 31.02 Unknown
03/22/2019 08:59 AM 46.58 -0.22 67.46 40.28 10.0 x 2.46 NW 3.36 NW 4.70 NW x x Other 02/14/2019 07:19 AM   x x x x x 31.02 Unknown
03/22/2019 09:00 AM 46.76 0.14 67.46 40.28 10.0 x 3.13 NW 3.36 NW 5.14 NW x x Other 02/14/2019 07:19 AM   x x x x x 31.02 Unknown
03/22/2019 09:01 AM 46.94 0.14 67.46 40.28 10.0 x 3.13 NW 2.01 NW 5.14 NW x x Other 02/14/2019 07:19 AM   x x x x x 31.02 Unknown
03/22/2019 09:02 AM 46.94 0.32 67.46 40.28 10.0 x 2.01 NW 3.13 N 5.14 NW x x Other 02/14/2019 07:19 AM   x x x x x 31.02 Unknown
03/22/2019 09:03 AM 47.12 0.50 67.46 40.28 10.0 x 2.01 N 1.57 NW 5.14 NW x x Other 02/14/2019 07:19 AM   x x x x x 31.02 Unknown
03/22/2019 09:04 AM 47.30 0.68 67.46 40.28 10.0 x 2.68 NW 3.80 NW 5.14 NW x x Other 02/14/2019 07:19 AM   x x x x x 31.02 Unknown
03/22/2019 09:05 AM 47.30 0.68 67.46 40.28 10.0 x 3.13 NW 3.58 NW 5.14 NW x x Other 02/14/2019 07:19 AM   x x x x x 31.02 Unknown
03/22/2019 09:06 AM 47.30 0.68 67.46 40.28 10.0 x 3.58 NW 3.36 NW 5.37 NW x x Other 02/14/2019 07:19 AM   x x x x x 31.02 Unknown
03/22/2019 09:07 AM 47.30 0.86 67.46 40.28 10.0 x 3.13 NW 2.68 NW 5.37 NW x x Other 02/14/2019 07:19 AM   x x x x x 31.02 Unknown
03/22/2019 09:08 AM 47.48 0.86 67.46 40.28 10.0 x 2.91 NW 4.03 NE 5.37 NW x x Other 02/14/2019 07:19 AM   x x x x x 31.02 Unknown
03/22/2019 09:09 AM 47.48 0.86 67.46 40.28 10.0 x 3.36 NW 3.36 NW 5.37 NW x x Other 02/14/2019 07:19 AM   x x x x x 31.02 Unknown
03/22/2019 09:10 AM 47.48 0.86 67.46 40.28 10.0 x 3.80 NW 4.47 NW 5.37 NW x x Other 02/14/2019 07:19 AM   x x x x x 31.02 Unknown
03/22/2019 09:11 AM 47.66 0.86 67.46 40.28 x x 4.03 NW 4.92 W 5.37 NW x x Other 02/14/2019 07:19 AM   x x x x x 31.02 Unknown
03/22/2019 09:12 AM 47.66 1.04 67.46 40.28 10.0 x 4.47 NW 4.25 NW 5.59 W x x Other 02/14/2019 07:19 AM   x x x x x 31.02 Unknown
03/22/2019 09:13 AM 47.66 1.04 67.46 40.28 10.0 x 4.25 NW 3.13 NW 5.59 W x x Other 02/14/2019 07:19 AM   x x x x x 31.02 Unknown
03/22/2019 09:14 AM 47.66 1.04 67.46 40.28 10.0 x 3.80 NW 4.25 NW 5.59 W x x Other 02/14/2019 07:19 AM   x x x x x 31.02 Unknown
03/22/2019 09:15 AM 47.66 1.22 67.46 40.28 10.0 x 3.80 NW 4.47 NW 5.59 W x x Other 02/14/2019 07:19 AM   x x x x x 31.02 Unknown
03/22/2019 09:16 AM 47.66 1.22 67.46 40.28 10.0 x 4.03 NW 3.80 NW 5.59 W x x Other 02/14/2019 07:19 AM   x x x x x 31.02 Unknown
03/22/2019 09:17 AM 47.84 1.22 67.46 40.28 10.0 x 3.80 NW 4.03 N 5.59 W x x Other 02/14/2019 07:19 AM   x x x x x 31.02 Unknown
03/22/2019 09:18 AM 48.02 1.40 67.46 40.28 10.0 x 3.80 NW 4.92 NW 5.59 W x x Other 02/14/2019 07:19 AM   x x x x x 31.02 Unknown
03/22/2019 09:19 AM 48.02 1.40 67.46 40.28 10.0 x 4.25 NW 3.58 N 5.82 NW x x Other 02/14/2019 07:19 AM   x x x x x 31.02 Unknown
03/22/2019 09:20 AM 48.02 1.40 67.46 40.28 10.0 x 4.03 NW 2.46 N 5.82 NW x x Other 02/14/2019 07:19 AM   x x x x x 31.02 Unknown
03/22/2019 09:21 AM 48.02 1.40 67.46 40.28 10.0 x 3.13 NW 2.68 N 5.82 NW x x Other 02/14/2019 07:19 AM   x x x x x 31.02 Unknown
03/22/2019 09:22 AM 48.02 1.58 67.46 40.28 10.0 x 2.01 N 0.00 x 5.82 NW x x Other 02/14/2019 07:19 AM   x x x x x 31.02 Unknown
03/22/2019 09:23 AM 48.20 1.58 67.46 40.28 10.0 x 0.89 N 0.00 SW 5.82 NW x x Other 02/14/2019 07:19 AM   x x x x x 31.02 Unknown
03/22/2019 09:24 AM 48.38 1.76 67.46 40.28 10.0 x 0.22 E 0.67 W 5.82 NW x x Other 02/14/2019 07:19 AM   x x x x x 31.02 Unknown
03/22/2019 09:25 AM 48.38 1.94 67.46 40.28 10.0 x 0.89 N 0.45 E 5.82 NW x x Other 02/14/2019 07:19 AM   x x x x x 31.02 Unknown
03/22/2019 09:26 AM 48.38 1.94 67.46 40.28 10.0 x 0.89 N 0.00 S 5.82 NW x x Other 02/14/2019 07:19 AM   x x x x x 31.02 Unknown
03/22/2019 09:27 AM 48.56 2.12 67.46 40.28 10.0 x 0.22 SE 1.57 SE 5.82 NW x x Other 02/14/2019 07:19 AM   x x x x x 31.02 Unknown
03/22/2019 09:28 AM 48.74 2.30 67.46 40.28 10.0 x 0.89 SE 1.79 NE 5.82 NW x x Other 02/14/2019 07:19 AM   x x x x x 31.02 Unknown
03/22/2019 09:29 AM 48.92 2.48 67.46 40.28 10.0 x 2.01 NE 2.46 N 4.47 N x x Other 02/14/2019 07:19 AM   x x x x x 31.02 Unknown
03/22/2019 09:30 AM 48.92 2.48 67.46 40.28 10.0 x 2.46 N 2.24 N 4.47 N x x Other 02/14/2019 07:19 AM   x x x x x 31.02 Unknown
03/22/2019 09:31 AM 48.92 2.48 67.46 40.28 10.0 x 1.57 N 0.00 W 3.80 N x x Other 02/14/2019 07:19 AM   x x x x x 31.02 Unknown
03/22/2019 09:32 AM 49.10 2.48 67.46 40.28 10.0 x 0.45 W 0.00 W 3.80 N x x Other 02/14/2019 07:19 AM   x x x x x 31.02 Unknown
03/22/2019 09:33 AM 49.10 2.84 67.46 40.28 10.0 x 0.22 W 1.12 W 3.80 N x x Other 02/14/2019 07:19 AM   x x x x x 31.02 Unknown
03/22/2019 09:34 AM 49.28 2.84 67.46 40.28 10.0 x 0.89 S 1.57 N 3.80 N x x Other 02/14/2019 07:19 AM   x x x x x 31.02 Unknown
03/22/2019 09:35 AM 49.46 3.02 67.46 40.28 10.0 x 1.79 NW 1.79 W 5.14 NW x x Other 02/14/2019 07:19 AM   x x x x x 31.02 Unknown
03/22/2019 09:36 AM 49.46 3.20 67.46 40.28 10.0 x 1.57 W 0.89 E 5.14 NW x x Other 02/14/2019 07:19 AM   x x x x x 31.02 Unknown
03/22/2019 09:37 AM 49.46 3.20 67.46 40.28 10.0 x 1.57 N 2.24 N 5.14 NW x x Other 02/14/2019 07:19 AM   x x x x x 31.02 Unknown
03/22/2019 09:38 AM 49.64 3.20 67.46 40.28 10.0 x 1.34 N 0.22 N 5.14 NW x x Other 02/14/2019 07:19 AM   x x x x x 31.02 Unknown
03/22/2019 09:39 AM 49.64 3.20 67.46 40.28 10.0 x 1.12 N 2.46 NW 5.14 NW x x Other 02/14/2019 07:19 AM   x x x x x 31.02 Unknown
03/22/2019 09:40 AM 49.64 3.20 67.46 40.28 10.0 x 2.01 NW 2.68 NW 5.14 NW x x Other 02/14/2019 07:19 AM   x x x x x 31.02 Unknown
03/22/2019 09:41 AM 49.64 3.20 67.46 40.28 10.0 x 2.46 NW 1.79 N 5.14 NW x x Other 02/14/2019 07:19 AM   x x x x x 31.02 Unknown
03/22/2019 09:42 AM 49.64 3.20 67.46 40.28 10.0 x 1.79 NW 1.34 N 5.14 NW x x Other 02/14/2019 07:19 AM   x x x x x 31.02 Unknown
03/22/2019 09:43 AM 49.82 3.56 67.46 40.28 10.0 x 1.12 NW 1.34 NE 5.14 NW x x Other 02/14/2019 07:19 AM   x x x x x 31.02 Unknown
03/22/2019 09:44 AM 50.00 3.56 67.46 40.28 10.0 x 0.89 N 1.12 SE 5.14 NW x x Other 02/14/2019 07:19 AM   x x x x x 31.02 Unknown
03/22/2019 09:45 AM 50.00 3.74 67.46 40.28 10.0 x 0.89 NE 0.67 E 3.58 NW x x Other 02/14/2019 07:19 AM   x x x x x 31.02 Unknown
03/22/2019 09:46 AM 50.18 3.92 67.46 40.28 10.0 x 1.12 N 0.22 N 3.58 NW x x Other 02/14/2019 07:19 AM   x x x x x 31.02 Unknown
03/22/2019 09:47 AM 50.18 3.92 67.46 40.28 10.0 x 2.46 N 4.92 NE 5.14 N x x Other 02/14/2019 07:19 AM   x x x x x 31.02 Unknown
03/22/2019 09:48 AM 50.18 3.92 67.46 40.28 10.0 x 4.47 N 5.82 N 6.49 N x x Other 02/14/2019 07:19 AM   x x x x x 31.02 Unknown
03/22/2019 09:49 AM 50.00 3.74 67.46 40.28 10.0 x 5.37 N 4.47 NE 6.49 N x x Other 02/14/2019 07:19 AM   x x x x x 31.02 Unknown
03/22/2019 09:50 AM 50.00 3.56 67.46 40.28 10.0 x 4.25 N 3.36 N 6.49 N x x Other 02/14/2019 07:19 AM   x x x x x 31.02 Unknown
03/22/2019 09:51 AM 50.00 3.56 67.46 40.28 10.0 x 2.91 N 4.25 N 6.49 N x x Other 02/14/2019 07:19 AM   x x x x x 31.02 Unknown
03/22/2019 09:52 AM 49.82 3.56 67.46 40.28 10.0 x 3.13 N 3.13 N 6.49 N x x Other 02/14/2019 07:19 AM   x x x x x 31.02 Unknown
03/22/2019 09:53 AM 50.00 3.56 67.46 40.28 10.0 x 3.36 N 2.46 N 6.49 N x x Other 02/14/2019 07:19 AM   x x x x x 31.02 Unknown
03/22/2019 09:54 AM 50.00 3.56 67.46 40.28 10.0 x 2.68 N 0.00 E 6.49 N x x Other 02/14/2019 07:19 AM   x x x x x 31.02 Unknown
03/22/2019 09:56 AM 50.18 3.92 67.46 40.28 10.0 x 0.67 NE 3.13 N 6.49 N x x Other 02/14/2019 07:19 AM   x x x x x 31.02 Unknown
03/22/2019 09:57 AM 50.36 4.10 67.46 40.28 10.0 x 2.01 N 2.91 N 6.49 N x x Other 02/14/2019 07:19 AM   x x x x x 31.02 Unknown
03/22/2019 09:58 AM 50.36 3.92 67.46 40.28 10.0 x 2.68 N 1.57 E 5.14 N x x Other 02/14/2019 07:19 AM   x x x x x 31.02 Unknown
03/22/2019 10:00 AM 50.36 4.10 67.46 40.28 10.0 x 2.91 NE 4.25 NE 4.92 NE x x Other 02/14/2019 07:19 AM   x x x x x 31.02 Unknown
03/22/2019 10:01 AM 50.36 4.10 67.46 40.28 10.0 x 4.03 NE 4.47 NE 5.59 NE x x Other 02/14/2019 07:19 AM   x x x x x 31.02 Unknown
03/22/2019 10:02 AM 50.18 3.92 67.46 40.28 10.0 x 3.80 NE 2.68 N 5.59 NE x x Other 02/14/2019 07:19 AM   x x x x x 31.02 Unknown
03/22/2019 10:03 AM 50.36 4.10 67.46 40.28 10.0 x 2.68 N 2.46 NE 5.59 NE x x Other 02/14/2019 07:19 AM   x x x x x 31.02 Unknown
03/22/2019 10:04 AM 50.36 4.10 67.46 40.28 10.0 x 2.46 N 3.36 NE 5.59 NE x x Other 02/14/2019 07:19 AM   x x x x x 31.02 Unknown
03/22/2019 10:05 AM 50.36 4.10 67.46 40.28 10.0 x 2.91 E 2.01 E 5.59 NE x x Other 02/14/2019 07:19 AM   x x x x x 31.02 Unknown
03/22/2019 10:06 AM 50.36 4.10 67.46 40.28 10.0 x 2.46 E 1.79 SE 5.59 NE x x Other 02/14/2019 07:19 AM   x x x x x 31.02 Unknown
03/22/2019 10:07 AM 50.36 4.28 67.46 40.28 10.0 x 1.79 E 1.12 E 5.59 NE x x Other 02/14/2019 07:19 AM   x x x x x 31.02 Unknown
03/22/2019 10:08 AM 50.54 4.28 67.46 40.28 10.0 x 1.57 SE 1.57 N 5.59 NE x x Other 02/14/2019 07:19 AM   x x x x x 31.02 Unknown
03/22/2019 10:09 AM 50.72 4.46 67.46 40.28 10.0 x 2.91 NE 3.80 N 5.59 NE x x Other 02/14/2019 07:19 AM   x x x x x 31.02 Unknown
03/22/2019 10:10 AM 50.72 4.46 67.46 40.28 10.0 x 2.91 N 2.91 E 5.59 NE x x Other 02/14/2019 07:19 AM   x x x x x 31.02 Unknown
03/22/2019 10:11 AM 50.72 4.46 67.46 40.28 10.0 x 2.46 NE 4.92 NE 5.37 N x x Other 02/14/2019 07:19 AM   x x x x x 31.02 Unknown
03/22/2019 10:12 AM 50.72 4.28 67.46 40.28 10.0 x 3.58 NE 4.92 NE 6.26 NE x x Other 02/14/2019 07:19 AM   x x x x x 31.02 Unknown
03/22/2019 10:13 AM 50.54 4.28 67.46 40.28 10.0 x 4.47 NE 1.79 NE 6.26 NE x x Other 02/14/2019 07:19 AM   x x x x x 31.02 Unknown
03/22/2019 10:15 AM 50.72 4.64 67.46 40.28 10.0 x 1.34 NE 2.46 N 6.26 NE x x Other 02/14/2019 07:19 AM   x x x x x 31.02 Unknown
03/22/2019 10:16 AM 50.72 4.64 67.46 40.28 10.0 x 1.79 N 1.34 NE 6.26 NE x x Other 02/14/2019 07:19 AM   x x x x x 31.02 Unknown
03/22/2019 10:17 AM 50.90 4.82 67.46 40.28 10.0 x 1.79 N 0.89 N 6.26 NE x x Other 02/14/2019 07:19 AM   x x x x x 31.02 Unknown
03/22/2019 10:18 AM 50.90 4.82 67.46 40.28 10.0 x 2.24 NE 3.58 NE 6.26 NE x x Other 02/14/2019 07:19 AM   x x x x x 31.02 Unknown
03/22/2019 10:19 AM 50.90 4.82 67.46 40.28 10.0 x 3.36 NE 2.91 NE 6.26 NE x x Other 02/14/2019 07:19 AM   x x x x x 31.02 Unknown
03/22/2019 10:20 AM 50.90 4.82 67.46 40.28 10.0 x 3.36 NE 3.13 NE 6.26 NE x x Other 02/14/2019 07:19 AM   x x x x x 31.02 Unknown
03/22/2019 10:21 AM 50.90 4.82 67.46 40.28 10.0 x 3.58 NE 3.36 N 5.82 NE x x Other 02/14/2019 07:19 AM   x x x x x 31.02 Unknown
03/22/2019 10:22 AM 50.90 4.82 67.46 40.28 10.0 x 3.58 NE 3.36 NE 4.47 NE x x Other 02/14/2019 07:19 AM   x x x x x 31.02 Unknown
03/22/2019 10:23 AM 50.90 4.82 67.46 40.28 10.0 x 2.91 NE 2.68 N 4.47 NE x x Other 02/14/2019 07:19 AM   x x x x x 31.02 Unknown
03/22/2019 10:24 AM 51.08 5.00 67.46 40.28 10.0 x 2.01 NE 1.57 NE 4.47 NE x x Other 02/14/2019 07:19 AM   x x x x x 31.02 Unknown
03/22/2019 10:25 AM 51.26 5.00 67.46 40.28 10.0 x 1.79 NE 1.57 NE 4.47 NE x x Other 02/14/2019 07:19 AM   x x x x x 31.02 Unknown
03/22/2019 10:26 AM 51.26 5.18 67.46 40.28 10.0 x 2.24 NE 4.25 N 4.47 NE x x Other 02/14/2019 07:19 AM   x x x x x 31.02 Unknown
03/22/2019 10:28 AM 51.44 5.36 67.46 40.28 10.0 x 2.68 N 3.36 W 5.14 N x x Other 02/14/2019 07:19 AM   x x x x x 31.02 Unknown
03/22/2019 10:29 AM 51.44 5.36 67.46 40.28 10.0 x 2.46 NW 4.92 NE 5.14 N x x Other 02/14/2019 07:19 AM   x x x x x 31.02 Unknown
03/22/2019 10:30 AM 51.44 5.36 67.46 40.28 10.0 x 3.80 NE 4.70 NE 5.59 NE x x Other 02/14/2019 07:19 AM   x x x x x 31.02 Unknown
03/22/2019 10:31 AM 51.44 5.36 67.46 40.28 10.0 x 4.47 NE 3.80 N 5.59 NE x x Other 02/14/2019 07:19 AM   x x x x x 31.02 Unknown
03/22/2019 10:32 AM 51.44 5.36 67.46 40.28 10.0 x 3.58 N 1.79 NE 5.59 NE x x Other 02/14/2019 07:19 AM   x x x x x 31.02 Unknown
03/22/2019 10:34 AM 51.44 5.36 67.46 40.28 10.0 x 2.91 NE 2.24 NE 5.59 NE x x Other 02/14/2019 07:19 AM   x x x x x 31.02 Unknown
03/22/2019 10:35 AM 51.62 5.54 67.46 40.28 10.0 x 2.46 NE 1.79 N 5.59 NE x x Other 02/14/2019 07:19 AM   x x x x x 31.02 Unknown
03/22/2019 10:36 AM 51.62 5.54 67.46 40.28 10.0 x 1.79 NE 1.34 NW 5.59 NE x x Other 02/14/2019 07:19 AM   x x x x x 31.02 Unknown
03/22/2019 10:37 AM 51.62 5.72 67.46 40.28 10.0 x 1.34 NW 2.46 NW 5.59 NE x x Other 02/14/2019 07:19 AM   x x x x x 31.02 Unknown
03/22/2019 10:38 AM 51.62 5.72 67.46 40.28 10.0 x 1.79 NW 2.24 NW 5.59 NE x x Other 02/14/2019 07:19 AM   x x x x x 31.02 Unknown
03/22/2019 10:39 AM 51.98 5.90 67.46 40.28 10.0 x 2.24 NW 3.80 N 5.59 NE x x Other 02/14/2019 07:19 AM   x x x x x 31.02 Unknown
03/22/2019 10:40 AM 51.98 6.08 67.46 40.28 10.0 x 3.58 N 4.25 NE 6.49 NE x x Other 02/14/2019 07:19 AM   x x x x x 31.02 Unknown
03/22/2019 10:41 AM 51.98 6.08 67.46 40.28 10.0 x 4.25 NE 1.79 NE 6.49 NE x x Other 02/14/2019 07:19 AM   x x x x x 31.02 Unknown
03/22/2019 10:42 AM 52.16 6.08 67.46 40.28 10.0 x 3.58 N 3.13 N 6.49 NE x x Other 02/14/2019 07:19 AM   x x x x x 31.02 Unknown
03/22/2019 10:43 AM 52.16 6.26 67.46 40.28 10.0 x 3.36 N 3.36 NE 6.49 NE x x Other 02/14/2019 07:19 AM   x x x x x 31.02 Unknown
03/22/2019 10:44 AM 51.98 6.08 67.46 40.28 10.0 x 3.80 E 5.14 E 6.49 NE x x Other 02/14/2019 07:19 AM   x x x x x 31.02 Unknown
03/22/2019 10:45 AM 51.80 5.72 67.46 40.28 10.0 x 4.25 E 3.80 E 6.49 NE x x Other 02/14/2019 07:19 AM   x x x x x 31.02 Unknown
03/22/2019 10:46 AM 51.80 5.72 67.46 40.28 10.0 x 4.03 E 3.80 E 6.49 NE x x Other 02/14/2019 07:19 AM   x x x x x 31.02 Unknown
03/22/2019 10:47 AM 51.80 5.72 67.46 40.28 10.0 x 3.13 E 1.79 N 6.49 NE x x Other 02/14/2019 07:19 AM   x x x x x 31.02 Unknown
03/22/2019 10:48 AM 51.98 5.72 67.46 40.28 10.0 x 2.01 E 1.57 NE 6.49 NE x x Other 02/14/2019 07:19 AM   x x x x x 31.02 Unknown
03/22/2019 10:49 AM 51.98 5.90 67.46 40.28 10.0 x 2.24 NE 3.58 NE 6.49 NE x x Other 02/14/2019 07:19 AM   x x x x x 31.02 Unknown
03/22/2019 10:50 AM 51.98 6.08 67.46